GEFSMA_prec_meanprecacc_150.txt.gz
Total_Precipitation_Accumulation
1.57 1.54 1.54 1.55 1.52 1.58 1.59 1.50 1.27 1.06 0.91 0.79 0.66 0.66 0.68 0.68 0.78 0.84 1.03 1.03 0.91 1.06 1.31 1.47 1.45 1.40 1.34 1.23 1.14 1.09 1.05 0.98 0.85 0.71 0.57 0.50 0.46 0.41 0.39 0.38 0.38 0.37 0.38
1.84 1.76 1.82 1.86 1.70 1.70 1.80 1.81 1.62 1.41 1.18 1.04 0.91 0.84 0.81 0.77 0.86 0.97 1.12 1.21 1.12 1.10 1.38 1.67 1.76 1.77 1.69 1.60 1.45 1.28 1.20 1.13 1.03 0.90 0.79 0.65 0.57 0.52 0.49 0.45 0.41 0.37 0.37
2.09 2.02 2.08 2.10 1.86 1.82 1.97 2.06 1.96 1.79 1.47 1.25 1.19 1.16 1.09 1.08 1.09 1.16 1.28 1.40 1.41 1.31 1.39 1.48 1.57 1.66 1.69 1.69 1.64 1.53 1.39 1.23 1.11 1.03 0.96 0.85 0.72 0.64 0.58 0.54 0.50 0.46 0.42
2.22 2.23 2.16 2.07 2.02 2.08 2.28 2.44 2.32 2.20 1.97 1.74 1.60 1.40 1.28 1.25 1.22 1.33 1.32 1.36 1.63 1.60 1.49 1.31 1.33 1.46 1.57 1.72 1.76 1.70 1.61 1.45 1.29 1.17 1.08 1.02 0.91 0.76 0.66 0.61 0.59 0.57 0.51
2.38 2.45 2.45 2.43 2.39 2.43 2.48 2.44 2.53 2.37 2.40 2.22 1.82 1.59 1.44 1.39 1.43 1.42 1.42 1.43 1.56 1.66 1.63 1.47 1.34 1.38 1.42 1.57 1.66 1.78 1.80 1.68 1.50 1.34 1.25 1.20 1.10 0.95 0.82 0.74 0.68 0.63 0.60
2.75 2.80 2.78 2.83 2.88 2.93 2.76 2.67 2.64 2.44 2.33 2.24 1.94 1.77 1.67 1.53 1.42 1.41 1.37 1.37 1.42 1.39 1.44 1.45 1.46 1.34 1.35 1.39 1.49 1.68 1.82 1.83 1.76 1.61 1.49 1.43 1.32 1.13 0.97 0.87 0.82 0.78 0.73
3.31 3.30 3.30 3.25 3.13 3.08 2.95 2.75 2.56 2.45 2.29 2.09 2.01 1.78 1.52 1.34 1.21 1.17 1.21 1.26 1.20 1.16 1.22 1.34 1.41 1.36 1.29 1.25 1.31 1.55 1.74 1.87 1.89 1.78 1.64 1.57 1.45 1.30 1.16 1.04 0.94 0.86 0.81
3.99 3.81 3.69 3.47 3.15 2.99 2.90 2.71 2.49 2.35 2.17 2.00 1.94 1.89 1.59 1.36 1.10 0.96 0.98 0.98 1.01 1.08 1.09 1.07 1.16 1.15 1.09 1.09 1.13 1.31 1.41 1.51 1.64 1.75 1.77 1.67 1.53 1.41 1.33 1.25 1.18 1.11 1.03
4.10 3.81 3.49 3.28 3.05 2.87 2.75 2.68 2.52 2.37 2.19 2.00 1.87 1.94 1.84 1.61 1.28 1.09 0.95 0.89 0.91 0.98 1.00 0.96 0.95 0.93 0.91 0.95 1.05 1.16 1.27 1.32 1.41 1.56 1.69 1.70 1.60 1.50 1.44 1.40 1.38 1.39 1.40
3.77 3.33 3.08 3.05 2.88 2.68 2.51 2.33 2.18 2.10 2.05 1.95 1.84 1.72 1.64 1.57 1.45 1.29 1.15 1.07 1.00 0.99 1.02 1.02 1.04 1.02 0.97 0.98 1.04 1.08 1.09 1.07 1.14 1.22 1.37 1.46 1.46 1.45 1.46 1.52 1.63 1.73 1.73
3.22 2.95 2.73 2.73 2.64 2.40 2.16 1.90 1.73 1.67 1.68 1.72 1.69 1.62 1.54 1.46 1.30 1.20 1.18 1.12 1.07 1.04 1.02 1.03 1.05 1.05 1.01 0.97 0.93 1.00 1.05 1.00 1.06 1.13 1.20 1.32 1.39 1.43 1.47 1.54 1.62 1.68 1.70
2.67 2.41 2.15 2.01 1.89 1.72 1.61 1.51 1.40 1.35 1.34 1.40 1.44 1.40 1.36 1.34 1.29 1.24 1.19 1.12 1.11 1.16 1.06 0.98 0.93 0.90 0.90 0.92 0.95 1.10 1.02 1.00 1.03 1.06 1.05 1.05 1.10 1.20 1.30 1.38 1.43 1.49 1.56
2.01 1.77 1.58 1.45 1.38 1.30 1.25 1.23 1.22 1.18 1.09 1.07 1.09 1.14 1.15 1.11 1.10 1.15 1.22 1.25 1.21 1.18 1.14 1.08 0.95 0.86 0.85 0.84 0.95 1.08 1.02 0.97 0.95 0.92 0.90 0.87 0.86 0.90 0.94 1.01 1.11 1.20 1.29
1.46 1.35 1.19 1.08 1.06 1.08 1.04 1.03 0.99 0.94 0.86 0.80 0.79 0.83 0.88 0.89 0.96 1.09 1.17 1.28 1.35 1.28 1.11 1.04 0.98 0.88 0.84 0.82 0.96 1.00 0.93 0.90 0.85 0.82 0.80 0.76 0.71 0.68 0.69 0.71 0.73 0.76 0.84
1.04 0.97 0.88 0.83 0.80 0.75 0.70 0.66 0.66 0.69 0.71 0.71 0.68 0.68 0.73 0.75 0.83 0.93 1.01 1.12 1.23 1.27 1.14 0.97 0.96 0.91 0.84 0.88 1.08 0.94 0.86 0.89 0.79 0.71 0.65 0.63 0.61 0.59 0.57 0.55 0.54 0.52 0.54
0.64 0.61 0.57 0.55 0.56 0.58 0.55 0.53 0.54 0.58 0.60 0.61 0.63 0.60 0.61 0.62 0.67 0.75 0.82 0.88 0.98 1.08 1.06 0.88 0.79 0.78 0.78 0.80 1.02 0.90 0.91 0.91 0.74 0.62 0.55 0.51 0.49 0.48 0.47 0.46 0.45 0.46 0.49
0.48 0.46 0.45 0.45 0.46 0.50 0.53 0.56 0.57 0.59 0.65 0.64 0.62 0.60 0.57 0.56 0.58 0.61 0.67 0.72 0.79 0.87 0.98 0.91 0.77 0.73 0.76 0.80 0.84 0.76 0.75 0.71 0.65 0.63 0.52 0.46 0.43 0.42 0.41 0.42 0.45 0.47 0.49
0.44 0.45 0.46 0.44 0.41 0.40 0.43 0.49 0.53 0.55 0.61 0.62 0.61 0.61 0.56 0.54 0.57 0.57 0.59 0.62 0.70 0.81 0.94 0.98 0.86 0.75 0.72 0.71 0.71 0.68 0.58 0.54 0.55 0.63 0.54 0.46 0.42 0.41 0.45 0.42 0.39 0.42 0.47
0.40 0.38 0.38 0.38 0.37 0.37 0.37 0.37 0.40 0.43 0.48 0.54 0.56 0.61 0.61 0.58 0.56 0.56 0.58 0.61 0.69 0.80 0.93 0.96 0.88 0.79 0.75 0.73 0.79 0.75 0.65 0.69 0.59 0.58 0.53 0.49 0.45 0.44 0.65 0.68 0.44 0.39 0.42
0.35 0.32 0.29 0.27 0.28 0.28 0.27 0.26 0.26 0.29 0.33 0.37 0.42 0.54 0.59 0.59 0.57 0.60 0.63 0.65 0.71 0.81 0.86 0.89 0.83 0.75 0.74 0.75 0.82 0.88 0.84 0.77 0.67 0.48 0.50 0.47 0.44 0.48 0.84 1.38 0.84 0.52 0.46
0.30 0.28 0.25 0.21 0.20 0.21 0.21 0.21 0.21 0.21 0.27 0.30 0.33 0.41 0.48 0.51 0.53 0.54 0.56 0.62 0.71 0.82 0.87 0.90 0.83 0.76 0.72 0.81 0.88 0.86 0.83 0.80 0.68 0.54 0.57 0.52 0.66 0.98 1.50 2.15 1.69 1.04 0.78
0.32 0.25 0.21 0.18 0.17 0.16 0.18 0.18 0.19 0.23 0.29 0.33 0.36 0.38 0.38 0.40 0.40 0.38 0.44 0.51 0.63 0.75 0.86 0.92 0.89 0.84 0.77 0.80 0.88 0.89 0.88 0.88 0.80 0.58 0.57 0.58 0.85 1.60 2.30 2.67 2.23 1.41 1.07
0.31 0.28 0.23 0.20 0.19 0.16 0.14 0.14 0.17 0.25 0.34 0.40 0.42 0.41 0.35 0.36 0.42 0.43 0.42 0.44 0.55 0.62 0.76 0.92 0.97 0.88 0.81 0.83 0.95 0.99 0.94 0.93 0.91 0.73 0.72 0.76 1.02 1.87 2.19 2.40 2.19 1.50 1.20
0.32 0.31 0.26 0.22 0.22 0.16 0.13 0.13 0.16 0.22 0.28 0.30 0.30 0.34 0.41 0.46 0.41 0.39 0.38 0.47 0.57 0.66 0.71 0.77 0.88 0.81 0.75 0.76 0.84 0.89 0.86 0.87 0.82 0.74 0.76 0.89 1.14 1.73 1.81 1.95 2.00 1.55 1.27
0.35 0.31 0.27 0.24 0.26 0.21 0.16 0.14 0.15 0.22 0.24 0.24 0.22 0.24 0.28 0.34 0.32 0.36 0.46 0.60 0.64 0.74 0.78 0.91 0.91 0.82 0.78 0.76 0.67 0.68 0.87 1.00 0.96 0.75 0.70 0.86 1.08 1.39 1.49 1.62 1.61 1.48 1.36
0.32 0.28 0.27 0.27 0.25 0.24 0.16 0.14 0.14 0.17 0.22 0.21 0.24 0.27 0.24 0.21 0.24 0.32 0.47 0.66 0.79 0.83 0.95 1.15 1.09 1.02 0.93 0.87 0.73 0.72 0.95 1.12 1.11 0.93 0.73 0.79 0.96 1.11 1.35 1.39 1.31 1.26 1.33

GEFSMA_prec_meanprecacc_156.txt.gz
Total_Precipitation_Accumulation
1.64 1.63 1.65 1.69 1.63 1.69 1.69 1.58 1.35 1.16 1.00 0.86 0.73 0.74 0.81 0.82 0.91 0.98 1.16 1.16 1.05 1.18 1.44 1.60 1.57 1.51 1.44 1.34 1.22 1.15 1.10 1.04 0.91 0.77 0.62 0.54 0.50 0.45 0.42 0.40 0.40 0.39 0.40
1.94 1.91 1.98 1.99 1.79 1.79 1.88 1.91 1.73 1.50 1.26 1.10 0.95 0.90 0.88 0.86 0.96 1.07 1.23 1.33 1.22 1.19 1.48 1.79 1.89 1.89 1.81 1.72 1.57 1.37 1.28 1.20 1.10 0.97 0.85 0.70 0.61 0.57 0.53 0.48 0.44 0.40 0.39
2.21 2.17 2.27 2.27 1.98 1.90 2.04 2.13 2.04 1.87 1.54 1.30 1.24 1.21 1.15 1.15 1.15 1.21 1.36 1.49 1.50 1.41 1.49 1.58 1.68 1.76 1.80 1.80 1.75 1.64 1.49 1.32 1.20 1.11 1.04 0.92 0.78 0.71 0.63 0.57 0.54 0.49 0.45
2.30 2.31 2.25 2.15 2.09 2.15 2.33 2.49 2.39 2.29 2.03 1.78 1.64 1.45 1.32 1.30 1.25 1.36 1.36 1.43 1.70 1.66 1.55 1.39 1.41 1.55 1.67 1.82 1.86 1.82 1.72 1.55 1.38 1.25 1.17 1.11 0.99 0.83 0.71 0.65 0.62 0.59 0.54
2.43 2.50 2.49 2.48 2.42 2.46 2.51 2.47 2.59 2.43 2.46 2.27 1.87 1.63 1.47 1.42 1.47 1.47 1.48 1.49 1.61 1.71 1.67 1.52 1.42 1.47 1.51 1.68 1.78 1.92 1.94 1.80 1.60 1.43 1.33 1.29 1.19 1.03 0.88 0.79 0.72 0.66 0.62
2.81 2.86 2.82 2.86 2.91 2.96 2.79 2.71 2.67 2.48 2.38 2.30 1.98 1.81 1.69 1.57 1.48 1.46 1.41 1.42 1.48 1.44 1.47 1.49 1.51 1.41 1.42 1.48 1.59 1.81 1.98 1.99 1.90 1.73 1.59 1.54 1.42 1.23 1.05 0.93 0.87 0.83 0.78
3.35 3.34 3.35 3.29 3.17 3.12 2.98 2.82 2.63 2.52 2.35 2.14 2.06 1.83 1.56 1.38 1.26 1.21 1.25 1.29 1.24 1.20 1.25 1.38 1.47 1.42 1.36 1.32 1.39 1.64 1.86 2.03 2.08 1.95 1.77 1.68 1.54 1.38 1.24 1.12 1.01 0.92 0.87
4.03 3.84 3.74 3.53 3.21 3.03 2.92 2.74 2.57 2.44 2.24 2.05 2.00 1.95 1.63 1.40 1.14 0.99 1.02 1.03 1.06 1.11 1.13 1.11 1.20 1.20 1.15 1.14 1.18 1.37 1.50 1.62 1.78 1.91 1.92 1.80 1.64 1.50 1.41 1.33 1.28 1.20 1.11
4.13 3.85 3.55 3.33 3.10 2.91 2.79 2.71 2.56 2.44 2.25 2.07 1.95 2.01 1.89 1.65 1.31 1.13 1.00 0.96 0.98 1.02 1.02 0.98 0.97 0.96 0.95 0.99 1.08 1.21 1.33 1.39 1.49 1.65 1.80 1.82 1.72 1.62 1.55 1.50 1.48 1.49 1.51
3.80 3.35 3.12 3.10 2.93 2.71 2.54 2.37 2.21 2.14 2.09 2.00 1.91 1.77 1.71 1.63 1.49 1.34 1.22 1.16 1.09 1.06 1.06 1.04 1.06 1.05 1.01 1.02 1.07 1.13 1.14 1.13 1.19 1.28 1.44 1.55 1.57 1.56 1.57 1.64 1.76 1.87 1.88
3.26 2.98 2.76 2.76 2.67 2.43 2.18 1.93 1.76 1.69 1.70 1.75 1.72 1.66 1.58 1.51 1.35 1.24 1.23 1.18 1.15 1.10 1.06 1.05 1.07 1.07 1.05 1.01 0.98 1.06 1.11 1.07 1.12 1.19 1.28 1.40 1.49 1.55 1.60 1.69 1.79 1.86 1.89
2.70 2.44 2.18 2.03 1.91 1.74 1.63 1.53 1.41 1.37 1.36 1.43 1.47 1.43 1.40 1.38 1.34 1.28 1.23 1.15 1.15 1.21 1.11 1.00 0.95 0.92 0.93 0.95 0.99 1.14 1.07 1.04 1.09 1.14 1.14 1.15 1.21 1.34 1.47 1.54 1.58 1.67 1.77
2.04 1.80 1.61 1.48 1.40 1.32 1.26 1.25 1.24 1.22 1.15 1.12 1.14 1.17 1.17 1.13 1.13 1.19 1.26 1.28 1.24 1.21 1.17 1.11 0.97 0.89 0.88 0.88 0.98 1.12 1.05 1.00 1.00 0.99 0.97 0.96 0.98 1.02 1.05 1.12 1.26 1.38 1.49
1.49 1.37 1.21 1.10 1.08 1.10 1.06 1.04 1.02 0.98 0.92 0.85 0.83 0.86 0.90 0.90 0.98 1.13 1.21 1.32 1.39 1.30 1.14 1.08 1.02 0.92 0.87 0.86 1.01 1.05 0.96 0.92 0.89 0.87 0.86 0.84 0.81 0.80 0.79 0.80 0.84 0.88 0.97
1.05 0.98 0.89 0.85 0.82 0.77 0.71 0.67 0.68 0.70 0.73 0.73 0.70 0.71 0.74 0.76 0.85 0.97 1.04 1.15 1.28 1.30 1.17 1.00 0.99 0.95 0.86 0.90 1.11 0.96 0.89 0.91 0.81 0.74 0.70 0.69 0.68 0.67 0.66 0.63 0.60 0.59 0.61
0.65 0.62 0.57 0.56 0.57 0.59 0.56 0.54 0.56 0.59 0.61 0.63 0.65 0.63 0.62 0.63 0.70 0.78 0.85 0.91 1.02 1.12 1.09 0.90 0.81 0.81 0.80 0.82 1.03 0.90 0.92 0.93 0.76 0.64 0.59 0.57 0.57 0.56 0.55 0.53 0.50 0.52 0.54
0.49 0.47 0.47 0.46 0.47 0.50 0.53 0.57 0.59 0.61 0.67 0.65 0.63 0.61 0.58 0.57 0.60 0.64 0.70 0.76 0.83 0.90 1.01 0.93 0.79 0.75 0.78 0.82 0.86 0.78 0.76 0.71 0.66 0.65 0.55 0.52 0.49 0.49 0.47 0.46 0.48 0.50 0.52
0.46 0.47 0.47 0.44 0.41 0.40 0.43 0.49 0.55 0.57 0.63 0.64 0.63 0.62 0.57 0.55 0.59 0.60 0.62 0.66 0.75 0.85 0.96 1.00 0.88 0.78 0.75 0.74 0.73 0.69 0.60 0.56 0.57 0.66 0.58 0.51 0.48 0.45 0.48 0.44 0.40 0.43 0.49
0.42 0.39 0.39 0.38 0.37 0.37 0.37 0.37 0.41 0.44 0.50 0.55 0.59 0.64 0.63 0.61 0.58 0.59 0.62 0.65 0.74 0.85 0.96 0.99 0.91 0.82 0.79 0.78 0.83 0.78 0.69 0.73 0.63 0.62 0.57 0.53 0.49 0.47 0.66 0.70 0.45 0.40 0.44
0.36 0.33 0.29 0.27 0.28 0.28 0.28 0.26 0.27 0.30 0.34 0.38 0.44 0.56 0.61 0.61 0.60 0.63 0.67 0.70 0.75 0.85 0.91 0.94 0.88 0.80 0.79 0.81 0.86 0.91 0.89 0.82 0.71 0.52 0.55 0.52 0.49 0.51 0.85 1.39 0.86 0.54 0.48
0.31 0.29 0.26 0.22 0.20 0.21 0.21 0.21 0.21 0.22 0.29 0.32 0.34 0.43 0.50 0.54 0.56 0.57 0.60 0.66 0.75 0.86 0.93 0.96 0.90 0.83 0.78 0.86 0.91 0.90 0.87 0.84 0.72 0.59 0.61 0.56 0.69 1.00 1.52 2.17 1.71 1.05 0.80
0.32 0.26 0.22 0.19 0.17 0.16 0.19 0.19 0.20 0.25 0.30 0.35 0.39 0.42 0.42 0.44 0.43 0.41 0.47 0.55 0.66 0.80 0.94 1.00 0.97 0.92 0.83 0.85 0.91 0.92 0.93 0.92 0.85 0.63 0.61 0.63 0.88 1.62 2.31 2.68 2.24 1.42 1.08
0.32 0.29 0.23 0.20 0.19 0.16 0.15 0.15 0.17 0.27 0.36 0.42 0.45 0.44 0.38 0.38 0.45 0.46 0.45 0.48 0.59 0.68 0.83 1.00 1.06 0.96 0.87 0.88 0.98 1.04 1.00 0.97 0.96 0.77 0.76 0.80 1.05 1.89 2.21 2.41 2.20 1.51 1.21
0.32 0.31 0.27 0.22 0.23 0.17 0.14 0.14 0.16 0.22 0.29 0.32 0.32 0.36 0.43 0.48 0.44 0.43 0.41 0.50 0.61 0.71 0.76 0.83 0.95 0.87 0.79 0.81 0.90 0.96 0.93 0.91 0.85 0.78 0.79 0.93 1.17 1.75 1.83 1.96 2.01 1.55 1.27
0.35 0.31 0.27 0.25 0.26 0.22 0.16 0.14 0.16 0.22 0.25 0.24 0.23 0.26 0.31 0.36 0.35 0.40 0.49 0.63 0.67 0.78 0.83 0.98 0.97 0.87 0.81 0.79 0.71 0.72 0.91 1.03 0.99 0.78 0.72 0.88 1.11 1.41 1.52 1.64 1.62 1.49 1.36
0.32 0.28 0.27 0.27 0.26 0.24 0.17 0.14 0.15 0.18 0.23 0.22 0.26 0.29 0.27 0.24 0.27 0.36 0.51 0.69 0.81 0.85 0.98 1.18 1.12 1.04 0.96 0.89 0.76 0.74 0.97 1.15 1.13 0.95 0.74 0.79 0.98 1.13 1.36 1.41 1.32 1.26 1.34

GEFSMA_prec_meanprecacc_162.txt.gz
Total_Precipitation_Accumulation
1.65 1.64 1.66 1.70 1.65 1.71 1.71 1.61 1.38 1.19 1.04 0.89 0.75 0.77 0.82 0.84 0.94 1.01 1.20 1.22 1.12 1.29 1.59 1.79 1.75 1.70 1.62 1.49 1.37 1.30 1.24 1.17 1.01 0.86 0.70 0.60 0.55 0.50 0.46 0.44 0.43 0.42 0.43
1.96 1.93 2.00 2.01 1.82 1.82 1.91 1.94 1.76 1.54 1.30 1.13 0.98 0.92 0.90 0.88 0.98 1.11 1.28 1.38 1.30 1.28 1.60 1.94 2.06 2.08 2.00 1.89 1.73 1.52 1.41 1.33 1.22 1.07 0.94 0.78 0.69 0.64 0.59 0.53 0.49 0.44 0.42
2.25 2.20 2.30 2.31 2.01 1.93 2.06 2.16 2.07 1.92 1.58 1.34 1.27 1.24 1.18 1.17 1.17 1.25 1.40 1.54 1.56 1.49 1.59 1.69 1.80 1.91 1.95 1.95 1.91 1.79 1.63 1.46 1.34 1.23 1.16 1.04 0.90 0.81 0.73 0.65 0.60 0.56 0.50
2.34 2.35 2.28 2.18 2.12 2.19 2.37 2.53 2.44 2.36 2.09 1.84 1.69 1.49 1.37 1.34 1.29 1.40 1.42 1.48 1.76 1.71 1.62 1.47 1.51 1.66 1.80 1.97 2.05 2.00 1.90 1.71 1.52 1.39 1.31 1.23 1.10 0.92 0.81 0.75 0.72 0.68 0.61
2.46 2.55 2.55 2.51 2.45 2.49 2.55 2.51 2.65 2.49 2.52 2.33 1.93 1.68 1.52 1.47 1.51 1.52 1.53 1.54 1.65 1.76 1.72 1.58 1.50 1.55 1.61 1.79 1.93 2.10 2.13 1.99 1.77 1.58 1.47 1.42 1.30 1.13 0.97 0.89 0.82 0.74 0.68
2.84 2.89 2.86 2.92 2.95 2.99 2.83 2.75 2.72 2.54 2.44 2.37 2.04 1.86 1.75 1.61 1.53 1.51 1.47 1.47 1.52 1.48 1.51 1.52 1.55 1.46 1.50 1.57 1.70 1.96 2.16 2.20 2.13 1.93 1.75 1.66 1.54 1.34 1.15 1.02 0.95 0.90 0.84
3.39 3.38 3.38 3.34 3.23 3.16 3.02 2.85 2.67 2.57 2.41 2.19 2.12 1.88 1.61 1.42 1.31 1.26 1.29 1.34 1.29 1.24 1.29 1.41 1.50 1.46 1.40 1.37 1.45 1.73 2.00 2.19 2.24 2.13 1.97 1.85 1.66 1.48 1.34 1.21 1.10 1.00 0.94
4.05 3.86 3.78 3.57 3.26 3.08 2.96 2.78 2.61 2.48 2.27 2.10 2.05 2.00 1.67 1.44 1.19 1.03 1.06 1.07 1.11 1.16 1.17 1.14 1.22 1.22 1.18 1.17 1.21 1.42 1.57 1.71 1.87 2.03 2.08 1.96 1.78 1.62 1.52 1.44 1.39 1.30 1.19
4.15 3.87 3.57 3.38 3.16 2.98 2.84 2.76 2.61 2.48 2.29 2.11 1.97 2.04 1.92 1.68 1.34 1.17 1.05 1.01 1.02 1.06 1.06 1.00 0.99 0.98 0.97 1.01 1.10 1.23 1.36 1.43 1.54 1.73 1.90 1.92 1.81 1.72 1.65 1.61 1.60 1.60 1.61
3.82 3.38 3.14 3.13 2.97 2.76 2.58 2.40 2.24 2.18 2.13 2.04 1.94 1.80 1.74 1.67 1.54 1.38 1.24 1.20 1.14 1.10 1.09 1.07 1.08 1.07 1.04 1.04 1.09 1.15 1.16 1.15 1.23 1.34 1.52 1.66 1.65 1.63 1.65 1.72 1.86 1.98 1.99
3.29 3.01 2.79 2.79 2.70 2.45 2.20 1.95 1.78 1.71 1.72 1.77 1.75 1.69 1.61 1.54 1.39 1.28 1.26 1.21 1.19 1.15 1.10 1.09 1.10 1.10 1.07 1.03 0.99 1.08 1.14 1.10 1.15 1.23 1.33 1.48 1.58 1.64 1.68 1.77 1.87 1.97 2.04
2.74 2.48 2.22 2.08 1.95 1.78 1.66 1.55 1.43 1.39 1.37 1.44 1.49 1.45 1.44 1.42 1.38 1.34 1.27 1.18 1.18 1.26 1.16 1.03 0.97 0.94 0.95 0.97 1.01 1.17 1.10 1.09 1.12 1.17 1.17 1.20 1.27 1.42 1.55 1.63 1.68 1.79 1.92
2.08 1.84 1.65 1.52 1.44 1.35 1.30 1.29 1.27 1.24 1.16 1.14 1.16 1.20 1.21 1.16 1.17 1.24 1.32 1.34 1.27 1.25 1.23 1.15 1.00 0.91 0.89 0.90 1.01 1.15 1.08 1.03 1.03 1.02 1.00 1.00 1.02 1.08 1.13 1.21 1.36 1.49 1.63
1.51 1.39 1.23 1.14 1.12 1.14 1.11 1.09 1.05 1.00 0.94 0.86 0.84 0.88 0.93 0.94 1.02 1.17 1.26 1.38 1.45 1.34 1.17 1.12 1.05 0.94 0.89 0.88 1.05 1.09 0.99 0.95 0.92 0.90 0.89 0.87 0.85 0.84 0.86 0.88 0.94 1.01 1.13
1.07 0.99 0.90 0.87 0.84 0.80 0.75 0.72 0.71 0.73 0.75 0.75 0.72 0.72 0.75 0.78 0.87 1.00 1.08 1.20 1.34 1.35 1.20 1.03 1.01 0.97 0.88 0.93 1.15 1.00 0.92 0.95 0.85 0.77 0.73 0.72 0.72 0.71 0.71 0.70 0.69 0.72 0.77
0.67 0.63 0.59 0.58 0.59 0.61 0.58 0.56 0.57 0.61 0.63 0.64 0.67 0.65 0.64 0.64 0.71 0.79 0.87 0.95 1.07 1.19 1.15 0.94 0.85 0.83 0.82 0.84 1.06 0.93 0.95 0.96 0.79 0.67 0.62 0.61 0.61 0.61 0.60 0.61 0.61 0.63 0.66
0.51 0.49 0.48 0.47 0.48 0.51 0.55 0.58 0.61 0.62 0.68 0.66 0.65 0.63 0.60 0.59 0.62 0.65 0.72 0.79 0.89 0.97 1.07 0.97 0.83 0.79 0.80 0.83 0.89 0.80 0.78 0.74 0.69 0.68 0.58 0.55 0.53 0.55 0.52 0.51 0.54 0.56 0.58
0.47 0.48 0.48 0.46 0.43 0.42 0.45 0.51 0.56 0.59 0.66 0.65 0.64 0.63 0.58 0.57 0.60 0.61 0.64 0.68 0.78 0.90 1.02 1.04 0.92 0.83 0.78 0.76 0.75 0.72 0.62 0.59 0.61 0.70 0.60 0.53 0.50 0.48 0.51 0.47 0.44 0.47 0.53
0.43 0.41 0.40 0.39 0.38 0.38 0.38 0.38 0.42 0.46 0.52 0.57 0.59 0.65 0.64 0.62 0.59 0.60 0.64 0.67 0.77 0.88 0.99 1.02 0.95 0.87 0.84 0.81 0.85 0.80 0.72 0.76 0.65 0.65 0.60 0.55 0.51 0.49 0.69 0.72 0.47 0.42 0.46
0.37 0.34 0.30 0.28 0.29 0.29 0.28 0.27 0.27 0.30 0.36 0.40 0.45 0.58 0.63 0.63 0.61 0.65 0.70 0.72 0.78 0.88 0.94 0.96 0.91 0.84 0.83 0.84 0.90 0.95 0.92 0.85 0.74 0.55 0.59 0.56 0.52 0.53 0.88 1.42 0.88 0.56 0.50
0.33 0.31 0.28 0.24 0.21 0.21 0.22 0.22 0.22 0.22 0.30 0.33 0.36 0.45 0.53 0.57 0.58 0.59 0.62 0.68 0.78 0.90 0.95 0.99 0.93 0.87 0.82 0.90 0.95 0.93 0.89 0.88 0.76 0.63 0.65 0.61 0.74 1.04 1.56 2.20 1.74 1.08 0.81
0.36 0.30 0.26 0.24 0.20 0.18 0.21 0.21 0.21 0.25 0.31 0.36 0.41 0.44 0.45 0.48 0.47 0.44 0.49 0.58 0.70 0.84 0.97 1.03 0.99 0.95 0.87 0.90 0.96 0.96 0.96 0.96 0.91 0.68 0.66 0.69 0.93 1.67 2.35 2.70 2.27 1.45 1.10
0.35 0.31 0.26 0.25 0.23 0.17 0.15 0.15 0.18 0.27 0.37 0.43 0.46 0.46 0.40 0.41 0.48 0.49 0.48 0.52 0.62 0.71 0.86 1.04 1.09 0.98 0.90 0.91 1.02 1.06 1.02 1.01 1.00 0.81 0.81 0.86 1.11 1.94 2.25 2.44 2.23 1.53 1.22
0.33 0.32 0.27 0.24 0.25 0.18 0.14 0.14 0.17 0.23 0.29 0.32 0.32 0.38 0.45 0.50 0.46 0.45 0.44 0.53 0.63 0.74 0.81 0.88 0.98 0.90 0.83 0.86 0.95 0.99 0.95 0.93 0.88 0.81 0.82 0.97 1.22 1.80 1.87 1.99 2.03 1.57 1.28
0.36 0.32 0.28 0.26 0.28 0.23 0.17 0.14 0.16 0.23 0.26 0.25 0.23 0.27 0.33 0.37 0.37 0.43 0.52 0.66 0.70 0.82 0.88 1.02 1.01 0.91 0.86 0.85 0.76 0.77 0.95 1.06 1.01 0.81 0.75 0.91 1.16 1.45 1.54 1.65 1.63 1.50 1.37
0.33 0.29 0.28 0.29 0.27 0.25 0.17 0.14 0.15 0.18 0.24 0.23 0.26 0.30 0.29 0.26 0.30 0.39 0.53 0.71 0.83 0.89 1.01 1.20 1.15 1.10 1.00 0.92 0.79 0.76 0.99 1.16 1.15 0.97 0.76 0.82 1.01 1.16 1.37 1.41 1.33 1.27 1.34

GEFSMA_prec_meanprecacc_168.txt.gz
Total_Precipitation_Accumulation
1.70 1.69 1.71 1.76 1.70 1.77 1.76 1.65 1.42 1.22 1.07 0.92 0.79 0.81 0.87 0.89 1.00 1.08 1.27 1.28 1.19 1.38 1.70 1.95 1.93 1.90 1.83 1.72 1.58 1.48 1.41 1.35 1.19 1.01 0.81 0.69 0.62 0.56 0.53 0.50 0.49 0.47 0.47
2.01 1.99 2.08 2.08 1.87 1.87 1.96 1.98 1.80 1.58 1.33 1.16 1.02 0.96 0.94 0.92 1.02 1.17 1.35 1.47 1.39 1.37 1.71 2.08 2.22 2.27 2.22 2.13 1.93 1.70 1.58 1.48 1.38 1.22 1.06 0.89 0.80 0.74 0.68 0.61 0.56 0.51 0.48
2.30 2.26 2.37 2.37 2.07 1.99 2.11 2.20 2.13 1.97 1.62 1.38 1.32 1.28 1.23 1.23 1.23 1.30 1.47 1.63 1.66 1.59 1.70 1.81 1.94 2.05 2.13 2.18 2.11 1.96 1.80 1.61 1.49 1.38 1.31 1.18 1.02 0.92 0.83 0.75 0.70 0.64 0.58
2.36 2.40 2.35 2.25 2.19 2.24 2.42 2.58 2.50 2.42 2.15 1.89 1.75 1.54 1.41 1.40 1.34 1.46 1.50 1.59 1.86 1.81 1.72 1.55 1.60 1.76 1.92 2.14 2.26 2.23 2.11 1.90 1.69 1.54 1.46 1.37 1.21 1.01 0.88 0.83 0.81 0.77 0.70
2.48 2.59 2.61 2.59 2.54 2.56 2.61 2.56 2.70 2.55 2.58 2.39 1.98 1.73 1.57 1.51 1.56 1.58 1.61 1.62 1.73 1.84 1.80 1.66 1.57 1.63 1.70 1.89 2.05 2.26 2.33 2.20 1.96 1.74 1.63 1.57 1.44 1.24 1.07 0.97 0.91 0.83 0.76
2.86 2.93 2.91 2.97 3.03 3.08 2.91 2.82 2.80 2.61 2.51 2.43 2.11 1.92 1.80 1.65 1.58 1.56 1.54 1.55 1.59 1.55 1.57 1.59 1.63 1.54 1.57 1.64 1.78 2.08 2.33 2.39 2.32 2.11 1.92 1.82 1.68 1.45 1.24 1.11 1.04 0.97 0.90
3.42 3.42 3.42 3.39 3.28 3.23 3.09 2.91 2.74 2.65 2.48 2.27 2.21 1.95 1.66 1.45 1.34 1.30 1.35 1.40 1.35 1.30 1.34 1.47 1.56 1.53 1.45 1.42 1.53 1.85 2.21 2.44 2.45 2.32 2.16 2.04 1.83 1.61 1.43 1.30 1.19 1.08 1.02
4.09 3.90 3.81 3.61 3.30 3.14 3.02 2.83 2.68 2.55 2.34 2.17 2.13 2.09 1.75 1.50 1.23 1.07 1.10 1.12 1.15 1.20 1.21 1.18 1.26 1.26 1.21 1.21 1.25 1.45 1.61 1.78 1.97 2.14 2.20 2.09 1.93 1.77 1.64 1.55 1.48 1.39 1.28
4.18 3.89 3.59 3.41 3.20 3.02 2.88 2.82 2.67 2.55 2.36 2.19 2.04 2.12 2.00 1.76 1.40 1.23 1.10 1.09 1.12 1.12 1.11 1.04 1.02 1.01 1.01 1.05 1.14 1.26 1.39 1.46 1.59 1.78 1.96 1.99 1.90 1.80 1.74 1.70 1.70 1.72 1.72
3.85 3.40 3.16 3.15 3.00 2.80 2.62 2.45 2.30 2.23 2.19 2.12 2.03 1.88 1.81 1.74 1.61 1.46 1.31 1.27 1.25 1.19 1.14 1.10 1.11 1.09 1.06 1.08 1.13 1.17 1.18 1.17 1.25 1.37 1.56 1.70 1.70 1.68 1.71 1.81 1.94 2.07 2.09
3.35 3.06 2.84 2.84 2.75 2.49 2.24 1.99 1.82 1.75 1.76 1.83 1.82 1.76 1.68 1.60 1.45 1.35 1.33 1.31 1.29 1.24 1.16 1.13 1.13 1.13 1.11 1.06 1.02 1.10 1.15 1.11 1.17 1.24 1.35 1.50 1.62 1.69 1.74 1.85 1.96 2.05 2.13
2.79 2.53 2.27 2.12 1.99 1.81 1.70 1.58 1.46 1.42 1.41 1.49 1.54 1.51 1.49 1.48 1.45 1.41 1.35 1.27 1.28 1.37 1.25 1.08 1.00 0.98 0.99 1.01 1.04 1.19 1.11 1.09 1.13 1.18 1.18 1.21 1.29 1.45 1.61 1.70 1.77 1.88 2.01
2.14 1.88 1.68 1.55 1.47 1.40 1.36 1.34 1.30 1.27 1.20 1.18 1.20 1.25 1.26 1.22 1.22 1.31 1.41 1.44 1.38 1.34 1.30 1.20 1.03 0.94 0.92 0.93 1.03 1.16 1.09 1.03 1.03 1.02 1.01 1.00 1.03 1.10 1.15 1.26 1.42 1.56 1.69
1.56 1.42 1.26 1.17 1.15 1.17 1.15 1.16 1.13 1.06 0.98 0.91 0.88 0.93 0.98 0.98 1.06 1.22 1.33 1.48 1.56 1.42 1.23 1.16 1.09 0.97 0.92 0.91 1.07 1.11 1.00 0.96 0.93 0.91 0.90 0.88 0.87 0.86 0.88 0.91 0.99 1.06 1.17
1.09 1.01 0.93 0.91 0.88 0.85 0.81 0.80 0.80 0.80 0.82 0.82 0.79 0.78 0.80 0.82 0.92 1.04 1.13 1.27 1.44 1.44 1.27 1.09 1.06 1.00 0.91 0.95 1.17 1.01 0.93 0.97 0.87 0.79 0.75 0.74 0.74 0.74 0.75 0.74 0.75 0.78 0.84
0.68 0.65 0.61 0.60 0.62 0.65 0.62 0.60 0.64 0.69 0.70 0.72 0.75 0.71 0.69 0.68 0.74 0.83 0.91 1.01 1.15 1.28 1.23 1.01 0.91 0.86 0.84 0.85 1.08 0.95 0.97 0.98 0.81 0.69 0.64 0.63 0.64 0.64 0.64 0.65 0.65 0.68 0.73
0.52 0.50 0.50 0.50 0.50 0.54 0.58 0.63 0.66 0.69 0.74 0.71 0.70 0.68 0.64 0.63 0.65 0.67 0.74 0.83 0.94 1.03 1.13 1.04 0.88 0.83 0.83 0.86 0.90 0.82 0.81 0.76 0.70 0.70 0.60 0.57 0.57 0.59 0.56 0.55 0.57 0.60 0.63
0.48 0.50 0.51 0.49 0.45 0.44 0.48 0.55 0.61 0.62 0.69 0.69 0.68 0.67 0.62 0.61 0.63 0.63 0.66 0.71 0.82 0.95 1.06 1.10 0.96 0.87 0.84 0.80 0.79 0.75 0.64 0.60 0.63 0.73 0.63 0.56 0.54 0.52 0.55 0.50 0.46 0.49 0.56
0.44 0.43 0.42 0.41 0.40 0.39 0.39 0.40 0.45 0.50 0.56 0.60 0.62 0.67 0.66 0.64 0.62 0.62 0.67 0.70 0.80 0.92 1.04 1.07 0.99 0.92 0.90 0.86 0.90 0.84 0.75 0.79 0.69 0.69 0.63 0.58 0.54 0.52 0.72 0.75 0.49 0.44 0.48
0.38 0.36 0.32 0.31 0.31 0.31 0.30 0.29 0.29 0.33 0.39 0.43 0.47 0.59 0.65 0.65 0.63 0.67 0.71 0.75 0.81 0.93 0.98 1.01 0.95 0.89 0.89 0.90 0.95 1.00 0.97 0.89 0.78 0.60 0.63 0.60 0.57 0.57 0.90 1.44 0.89 0.57 0.51
0.34 0.33 0.30 0.26 0.24 0.23 0.23 0.24 0.24 0.24 0.32 0.35 0.38 0.47 0.54 0.58 0.59 0.61 0.63 0.69 0.80 0.93 1.00 1.03 0.97 0.92 0.88 0.98 1.01 0.98 0.94 0.93 0.80 0.68 0.70 0.64 0.77 1.07 1.58 2.22 1.75 1.10 0.83
0.37 0.31 0.27 0.26 0.23 0.20 0.23 0.22 0.23 0.28 0.34 0.39 0.44 0.47 0.46 0.48 0.48 0.46 0.51 0.59 0.71 0.87 1.01 1.07 1.02 0.98 0.93 0.97 1.03 1.01 0.99 1.00 0.94 0.73 0.70 0.73 0.96 1.69 2.37 2.72 2.29 1.47 1.12
0.38 0.34 0.28 0.27 0.26 0.20 0.17 0.17 0.19 0.28 0.38 0.44 0.48 0.48 0.41 0.42 0.50 0.52 0.52 0.54 0.64 0.73 0.89 1.07 1.12 1.01 0.95 0.97 1.08 1.12 1.06 1.05 1.04 0.85 0.84 0.91 1.15 1.97 2.27 2.47 2.26 1.56 1.25
0.36 0.34 0.30 0.27 0.27 0.19 0.15 0.15 0.17 0.24 0.30 0.33 0.34 0.39 0.47 0.51 0.47 0.48 0.48 0.58 0.66 0.77 0.84 0.91 1.02 0.94 0.87 0.91 1.00 1.04 0.99 0.96 0.90 0.84 0.85 1.01 1.26 1.83 1.89 2.01 2.06 1.59 1.30
0.37 0.33 0.30 0.30 0.31 0.24 0.17 0.15 0.17 0.24 0.27 0.26 0.24 0.28 0.34 0.39 0.38 0.44 0.53 0.69 0.73 0.84 0.91 1.06 1.05 0.95 0.91 0.90 0.81 0.81 0.98 1.08 1.04 0.84 0.78 0.94 1.18 1.48 1.57 1.68 1.66 1.52 1.38
0.34 0.30 0.30 0.31 0.28 0.26 0.17 0.14 0.15 0.19 0.25 0.23 0.27 0.31 0.30 0.26 0.31 0.40 0.55 0.74 0.87 0.92 1.04 1.24 1.20 1.14 1.04 0.97 0.84 0.80 1.01 1.19 1.18 1.00 0.79 0.84 1.03 1.18 1.40 1.44 1.34 1.28 1.35

GEFSMA_prec_meanprecacc_174.txt.gz
Total_Precipitation_Accumulation
1.77 1.77 1.78 1.83 1.77 1.83 1.84 1.74 1.50 1.30 1.14 0.99 0.85 0.88 0.94 0.95 1.06 1.16 1.36 1.35 1.26 1.44 1.78 2.04 2.03 2.01 1.96 1.86 1.74 1.62 1.53 1.48 1.34 1.16 0.93 0.78 0.70 0.62 0.59 0.56 0.55 0.53 0.53
2.08 2.06 2.15 2.14 1.94 1.94 2.02 2.05 1.88 1.67 1.42 1.24 1.08 1.01 0.98 0.95 1.08 1.23 1.42 1.53 1.44 1.43 1.78 2.17 2.31 2.37 2.34 2.29 2.11 1.87 1.73 1.61 1.53 1.38 1.23 1.03 0.90 0.82 0.75 0.67 0.62 0.56 0.54
2.36 2.32 2.44 2.43 2.12 2.03 2.16 2.25 2.20 2.06 1.70 1.46 1.38 1.33 1.28 1.28 1.28 1.37 1.53 1.69 1.71 1.66 1.77 1.90 2.03 2.16 2.25 2.32 2.27 2.12 1.95 1.76 1.64 1.52 1.47 1.35 1.17 1.02 0.91 0.82 0.77 0.70 0.62
2.43 2.47 2.41 2.30 2.24 2.28 2.47 2.64 2.58 2.50 2.24 1.99 1.83 1.61 1.46 1.45 1.39 1.50 1.55 1.65 1.93 1.92 1.83 1.65 1.69 1.85 2.02 2.27 2.42 2.41 2.30 2.08 1.87 1.72 1.63 1.53 1.37 1.15 0.98 0.90 0.89 0.85 0.76
2.54 2.66 2.69 2.66 2.60 2.61 2.67 2.62 2.78 2.63 2.66 2.47 2.06 1.81 1.64 1.59 1.63 1.64 1.67 1.71 1.84 1.97 1.92 1.75 1.64 1.70 1.78 2.02 2.20 2.40 2.48 2.38 2.16 1.95 1.81 1.73 1.59 1.39 1.20 1.08 0.99 0.91 0.84
2.92 2.99 2.99 3.04 3.09 3.14 2.97 2.89 2.88 2.70 2.59 2.51 2.17 2.00 1.88 1.75 1.70 1.66 1.59 1.60 1.69 1.66 1.69 1.69 1.73 1.61 1.64 1.72 1.87 2.17 2.44 2.53 2.47 2.30 2.14 2.02 1.83 1.59 1.37 1.23 1.13 1.06 0.99
3.48 3.48 3.49 3.47 3.35 3.29 3.16 2.98 2.81 2.73 2.55 2.34 2.28 2.02 1.72 1.51 1.43 1.38 1.40 1.46 1.43 1.39 1.47 1.59 1.66 1.63 1.54 1.49 1.58 1.91 2.28 2.54 2.56 2.44 2.32 2.22 1.99 1.74 1.54 1.38 1.26 1.16 1.09
4.15 3.95 3.88 3.67 3.36 3.21 3.09 2.90 2.75 2.63 2.41 2.24 2.20 2.18 1.83 1.56 1.29 1.13 1.18 1.19 1.21 1.29 1.36 1.34 1.36 1.36 1.32 1.31 1.31 1.50 1.66 1.84 2.04 2.23 2.30 2.20 2.06 1.91 1.76 1.63 1.55 1.46 1.35
4.23 3.94 3.65 3.48 3.27 3.09 2.95 2.88 2.74 2.62 2.43 2.26 2.14 2.23 2.11 1.85 1.48 1.31 1.19 1.17 1.21 1.22 1.20 1.13 1.11 1.10 1.14 1.18 1.23 1.31 1.42 1.49 1.65 1.84 2.03 2.06 1.98 1.89 1.84 1.79 1.78 1.80 1.79
3.90 3.47 3.23 3.22 3.07 2.87 2.70 2.50 2.36 2.30 2.26 2.18 2.12 1.99 1.92 1.85 1.71 1.54 1.38 1.34 1.34 1.29 1.21 1.17 1.20 1.18 1.17 1.19 1.21 1.21 1.20 1.19 1.29 1.41 1.62 1.75 1.77 1.74 1.76 1.86 2.01 2.13 2.15
3.39 3.10 2.89 2.90 2.82 2.56 2.30 2.04 1.89 1.82 1.83 1.90 1.91 1.86 1.77 1.71 1.56 1.45 1.41 1.37 1.36 1.31 1.22 1.18 1.20 1.22 1.21 1.14 1.08 1.13 1.17 1.13 1.19 1.27 1.38 1.54 1.65 1.73 1.78 1.89 2.01 2.10 2.17
2.84 2.57 2.31 2.16 2.04 1.86 1.75 1.64 1.51 1.48 1.48 1.56 1.61 1.59 1.58 1.58 1.54 1.51 1.44 1.34 1.36 1.44 1.33 1.18 1.11 1.07 1.07 1.08 1.10 1.24 1.14 1.11 1.15 1.19 1.19 1.22 1.30 1.46 1.63 1.73 1.81 1.92 2.06
2.19 1.92 1.72 1.59 1.52 1.45 1.40 1.39 1.36 1.33 1.26 1.25 1.26 1.31 1.34 1.31 1.31 1.40 1.49 1.52 1.47 1.41 1.36 1.27 1.13 1.06 1.01 1.01 1.11 1.21 1.11 1.05 1.04 1.02 1.01 1.01 1.04 1.10 1.16 1.27 1.44 1.58 1.72
1.60 1.45 1.29 1.21 1.19 1.21 1.19 1.21 1.18 1.12 1.04 0.97 0.93 0.98 1.04 1.05 1.14 1.30 1.41 1.56 1.63 1.49 1.29 1.22 1.16 1.05 1.00 1.01 1.16 1.16 1.02 0.98 0.93 0.92 0.90 0.88 0.87 0.86 0.88 0.92 1.00 1.07 1.19
1.14 1.06 0.97 0.95 0.92 0.88 0.84 0.84 0.84 0.86 0.88 0.88 0.84 0.83 0.86 0.88 0.98 1.10 1.20 1.34 1.51 1.52 1.35 1.15 1.13 1.09 1.01 1.07 1.29 1.06 0.95 0.99 0.89 0.80 0.75 0.74 0.75 0.75 0.75 0.75 0.75 0.79 0.85
0.73 0.69 0.66 0.65 0.65 0.67 0.64 0.64 0.68 0.73 0.75 0.78 0.81 0.76 0.74 0.74 0.80 0.88 0.97 1.07 1.23 1.36 1.30 1.07 0.96 0.92 0.91 0.91 1.14 0.98 0.99 1.00 0.82 0.70 0.65 0.64 0.64 0.65 0.65 0.65 0.65 0.69 0.75
0.57 0.56 0.55 0.54 0.53 0.55 0.60 0.67 0.70 0.73 0.78 0.76 0.75 0.73 0.70 0.69 0.71 0.74 0.80 0.90 1.02 1.13 1.22 1.12 0.94 0.87 0.87 0.90 0.95 0.86 0.83 0.78 0.72 0.71 0.61 0.58 0.57 0.59 0.57 0.56 0.59 0.62 0.66
0.53 0.55 0.56 0.52 0.48 0.46 0.50 0.58 0.63 0.65 0.73 0.74 0.73 0.73 0.69 0.68 0.70 0.71 0.74 0.79 0.91 1.04 1.15 1.19 1.04 0.93 0.89 0.84 0.82 0.78 0.67 0.62 0.64 0.75 0.64 0.57 0.54 0.53 0.56 0.52 0.49 0.52 0.59
0.48 0.47 0.45 0.44 0.42 0.42 0.42 0.44 0.49 0.53 0.60 0.65 0.67 0.74 0.75 0.72 0.70 0.70 0.74 0.78 0.89 1.00 1.13 1.15 1.06 0.97 0.95 0.90 0.93 0.87 0.77 0.82 0.71 0.71 0.65 0.59 0.55 0.54 0.73 0.76 0.52 0.47 0.51
0.42 0.39 0.35 0.33 0.34 0.33 0.32 0.31 0.32 0.37 0.42 0.47 0.52 0.66 0.73 0.71 0.70 0.74 0.78 0.82 0.88 1.00 1.07 1.09 1.02 0.94 0.94 0.96 0.99 1.03 1.00 0.94 0.83 0.63 0.65 0.61 0.59 0.60 0.93 1.47 0.92 0.60 0.55
0.38 0.36 0.32 0.27 0.27 0.25 0.25 0.25 0.26 0.27 0.34 0.39 0.42 0.52 0.58 0.62 0.64 0.68 0.69 0.75 0.86 1.00 1.07 1.11 1.04 0.98 0.93 1.03 1.06 1.02 0.99 0.99 0.86 0.73 0.73 0.67 0.80 1.10 1.63 2.27 1.79 1.13 0.87
0.43 0.34 0.29 0.27 0.25 0.21 0.23 0.23 0.25 0.30 0.36 0.43 0.49 0.52 0.50 0.52 0.51 0.50 0.56 0.63 0.75 0.91 1.06 1.14 1.09 1.04 0.98 1.02 1.09 1.06 1.06 1.06 1.02 0.79 0.75 0.76 0.99 1.73 2.41 2.76 2.32 1.49 1.14
0.44 0.38 0.31 0.29 0.28 0.21 0.18 0.17 0.20 0.30 0.41 0.48 0.52 0.52 0.44 0.43 0.52 0.55 0.56 0.57 0.66 0.76 0.92 1.12 1.19 1.09 1.03 1.04 1.15 1.19 1.13 1.11 1.10 0.90 0.87 0.94 1.18 1.99 2.30 2.48 2.27 1.57 1.26
0.44 0.41 0.34 0.29 0.30 0.20 0.16 0.15 0.17 0.25 0.32 0.35 0.36 0.42 0.51 0.54 0.48 0.49 0.51 0.62 0.70 0.80 0.86 0.94 1.09 1.02 0.95 0.97 1.07 1.11 1.04 1.01 0.96 0.88 0.89 1.05 1.30 1.85 1.91 2.03 2.07 1.60 1.32
0.44 0.39 0.34 0.32 0.33 0.26 0.18 0.15 0.17 0.25 0.29 0.28 0.25 0.29 0.35 0.40 0.39 0.44 0.55 0.72 0.78 0.88 0.92 1.07 1.07 1.00 0.96 0.94 0.85 0.86 1.03 1.15 1.11 0.89 0.82 0.98 1.21 1.50 1.59 1.70 1.67 1.54 1.41
0.38 0.34 0.32 0.33 0.31 0.27 0.18 0.14 0.15 0.21 0.28 0.26 0.29 0.33 0.31 0.27 0.31 0.40 0.58 0.78 0.91 0.96 1.06 1.26 1.22 1.17 1.08 1.01 0.88 0.86 1.07 1.25 1.23 1.04 0.82 0.87 1.06 1.20 1.43 1.45 1.36 1.30 1.38

GEFSMA_prec_meanprecacc_180.txt.gz
Total_Precipitation_Accumulation
1.81 1.81 1.82 1.86 1.80 1.87 1.87 1.77 1.53 1.32 1.17 1.01 0.89 0.94 1.06 1.06 1.18 1.27 1.48 1.51 1.39 1.55 1.89 2.13 2.13 2.11 2.05 1.95 1.84 1.73 1.63 1.58 1.43 1.23 0.99 0.84 0.76 0.68 0.63 0.60 0.58 0.57 0.56
2.12 2.11 2.21 2.20 1.99 1.99 2.08 2.10 1.93 1.71 1.44 1.26 1.10 1.04 1.06 1.07 1.21 1.39 1.57 1.68 1.64 1.56 1.87 2.26 2.40 2.47 2.43 2.38 2.21 1.96 1.82 1.72 1.64 1.47 1.31 1.09 0.97 0.88 0.81 0.72 0.66 0.61 0.58
2.42 2.40 2.52 2.51 2.21 2.12 2.24 2.32 2.26 2.10 1.74 1.48 1.39 1.35 1.31 1.33 1.35 1.48 1.67 1.79 1.79 1.73 1.84 1.97 2.11 2.24 2.34 2.42 2.38 2.22 2.04 1.86 1.73 1.61 1.56 1.44 1.26 1.10 0.97 0.88 0.82 0.75 0.66
2.51 2.57 2.51 2.38 2.31 2.37 2.55 2.70 2.63 2.53 2.27 2.02 1.86 1.64 1.50 1.49 1.46 1.62 1.68 1.74 1.99 1.96 1.88 1.71 1.77 1.93 2.11 2.37 2.53 2.52 2.40 2.18 1.95 1.79 1.71 1.62 1.45 1.22 1.04 0.96 0.95 0.90 0.80
2.62 2.75 2.80 2.76 2.68 2.70 2.74 2.67 2.82 2.67 2.70 2.51 2.09 1.85 1.67 1.61 1.69 1.74 1.79 1.81 1.91 2.03 1.99 1.81 1.72 1.79 1.87 2.11 2.30 2.52 2.60 2.48 2.25 2.04 1.91 1.82 1.67 1.46 1.28 1.15 1.06 0.96 0.88
2.97 3.04 3.04 3.09 3.13 3.18 3.02 2.93 2.91 2.74 2.63 2.54 2.20 2.03 1.90 1.77 1.74 1.73 1.67 1.68 1.75 1.73 1.80 1.81 1.83 1.72 1.75 1.82 1.97 2.29 2.57 2.64 2.56 2.38 2.23 2.13 1.93 1.69 1.47 1.33 1.23 1.14 1.05
3.52 3.52 3.54 3.51 3.39 3.33 3.19 3.01 2.85 2.76 2.58 2.37 2.31 2.04 1.74 1.53 1.46 1.43 1.46 1.52 1.50 1.48 1.57 1.73 1.80 1.74 1.63 1.58 1.66 2.01 2.42 2.67 2.67 2.53 2.41 2.34 2.12 1.84 1.62 1.46 1.36 1.26 1.18
4.19 3.99 3.91 3.71 3.41 3.27 3.16 2.97 2.81 2.67 2.43 2.27 2.23 2.20 1.85 1.59 1.32 1.17 1.23 1.24 1.28 1.39 1.47 1.43 1.44 1.42 1.39 1.38 1.38 1.59 1.77 1.96 2.16 2.33 2.39 2.29 2.17 2.02 1.83 1.71 1.64 1.56 1.45
4.27 3.97 3.68 3.51 3.31 3.13 3.00 2.93 2.79 2.67 2.47 2.30 2.18 2.28 2.16 1.89 1.52 1.34 1.24 1.24 1.28 1.31 1.31 1.24 1.19 1.16 1.20 1.25 1.31 1.40 1.51 1.59 1.75 1.95 2.12 2.15 2.06 1.97 1.92 1.87 1.86 1.89 1.89
3.94 3.51 3.27 3.24 3.08 2.89 2.74 2.55 2.40 2.33 2.29 2.22 2.16 2.03 1.97 1.90 1.75 1.59 1.43 1.41 1.41 1.38 1.31 1.26 1.29 1.29 1.27 1.32 1.34 1.28 1.26 1.25 1.37 1.50 1.70 1.83 1.84 1.81 1.84 1.94 2.09 2.22 2.24
3.41 3.13 2.91 2.92 2.83 2.58 2.34 2.12 1.92 1.84 1.86 1.94 1.95 1.91 1.83 1.76 1.60 1.51 1.49 1.43 1.41 1.38 1.29 1.24 1.25 1.28 1.26 1.20 1.16 1.18 1.22 1.17 1.23 1.32 1.44 1.60 1.71 1.80 1.84 1.94 2.07 2.17 2.25
2.85 2.58 2.32 2.17 2.06 1.88 1.77 1.67 1.56 1.50 1.50 1.59 1.65 1.63 1.62 1.61 1.58 1.55 1.51 1.40 1.41 1.50 1.39 1.23 1.15 1.12 1.11 1.12 1.15 1.30 1.19 1.15 1.19 1.23 1.23 1.26 1.34 1.51 1.69 1.78 1.84 1.96 2.11
2.20 1.93 1.73 1.60 1.53 1.46 1.43 1.43 1.40 1.36 1.28 1.26 1.28 1.34 1.36 1.33 1.35 1.45 1.56 1.58 1.51 1.44 1.39 1.31 1.17 1.09 1.06 1.05 1.16 1.29 1.18 1.10 1.10 1.08 1.04 1.03 1.06 1.12 1.19 1.30 1.47 1.61 1.75
1.62 1.48 1.32 1.22 1.21 1.24 1.23 1.24 1.22 1.15 1.05 0.98 0.95 1.00 1.06 1.06 1.17 1.33 1.45 1.59 1.66 1.51 1.31 1.25 1.19 1.09 1.04 1.05 1.22 1.24 1.09 1.03 0.97 0.95 0.93 0.90 0.88 0.87 0.89 0.94 1.01 1.09 1.21
1.17 1.09 1.00 0.98 0.96 0.92 0.88 0.87 0.87 0.88 0.89 0.89 0.86 0.85 0.88 0.90 1.00 1.12 1.22 1.38 1.54 1.55 1.38 1.18 1.15 1.12 1.05 1.11 1.35 1.13 1.00 1.02 0.90 0.81 0.77 0.75 0.75 0.75 0.76 0.76 0.76 0.81 0.86
0.78 0.74 0.70 0.69 0.71 0.73 0.70 0.67 0.70 0.75 0.77 0.81 0.82 0.78 0.76 0.78 0.84 0.91 0.99 1.10 1.26 1.39 1.35 1.11 0.99 0.94 0.94 0.95 1.19 1.02 1.03 1.03 0.84 0.71 0.66 0.65 0.65 0.66 0.66 0.67 0.67 0.71 0.76
0.63 0.60 0.61 0.60 0.60 0.62 0.65 0.70 0.71 0.74 0.80 0.79 0.77 0.75 0.73 0.72 0.75 0.78 0.84 0.93 1.06 1.18 1.28 1.18 0.99 0.90 0.91 0.93 0.99 0.90 0.87 0.81 0.74 0.72 0.62 0.59 0.58 0.61 0.59 0.58 0.61 0.63 0.67
0.58 0.59 0.61 0.59 0.54 0.52 0.56 0.62 0.65 0.66 0.75 0.77 0.76 0.76 0.72 0.70 0.72 0.73 0.77 0.82 0.95 1.09 1.20 1.25 1.10 0.97 0.92 0.88 0.85 0.81 0.71 0.66 0.67 0.77 0.65 0.58 0.55 0.54 0.57 0.53 0.50 0.54 0.60
0.53 0.52 0.51 0.51 0.50 0.48 0.48 0.48 0.51 0.55 0.63 0.69 0.71 0.77 0.78 0.76 0.73 0.73 0.76 0.82 0.93 1.05 1.17 1.21 1.13 1.02 0.98 0.95 0.97 0.89 0.81 0.86 0.74 0.73 0.66 0.60 0.56 0.55 0.74 0.77 0.53 0.48 0.52
0.46 0.45 0.41 0.40 0.44 0.42 0.37 0.35 0.38 0.41 0.46 0.50 0.55 0.69 0.76 0.74 0.73 0.78 0.82 0.87 0.93 1.05 1.12 1.14 1.07 0.99 0.99 1.00 1.03 1.06 1.02 0.97 0.85 0.64 0.66 0.62 0.60 0.61 0.95 1.48 0.93 0.61 0.56
0.43 0.44 0.41 0.35 0.36 0.33 0.29 0.30 0.31 0.30 0.37 0.41 0.44 0.54 0.61 0.64 0.66 0.70 0.73 0.80 0.91 1.05 1.12 1.15 1.08 1.02 0.97 1.06 1.09 1.04 1.00 1.02 0.90 0.76 0.74 0.68 0.81 1.11 1.64 2.28 1.80 1.14 0.88
0.50 0.43 0.39 0.36 0.33 0.28 0.27 0.26 0.28 0.32 0.37 0.44 0.50 0.52 0.51 0.53 0.53 0.51 0.58 0.66 0.79 0.97 1.12 1.17 1.13 1.09 1.03 1.05 1.11 1.09 1.08 1.10 1.07 0.82 0.77 0.78 1.01 1.75 2.42 2.78 2.33 1.51 1.16
0.55 0.48 0.39 0.36 0.35 0.26 0.21 0.19 0.22 0.31 0.41 0.48 0.53 0.53 0.44 0.44 0.53 0.56 0.57 0.59 0.70 0.82 1.01 1.19 1.22 1.13 1.08 1.08 1.18 1.22 1.16 1.16 1.13 0.92 0.90 0.97 1.21 2.01 2.32 2.50 2.29 1.58 1.28
0.54 0.49 0.39 0.32 0.32 0.21 0.16 0.16 0.19 0.26 0.33 0.36 0.37 0.43 0.51 0.54 0.48 0.50 0.52 0.63 0.71 0.82 0.91 1.01 1.14 1.06 0.99 1.02 1.10 1.14 1.07 1.03 0.98 0.90 0.92 1.07 1.32 1.87 1.93 2.04 2.09 1.61 1.32
0.50 0.42 0.36 0.33 0.34 0.26 0.18 0.15 0.18 0.26 0.29 0.28 0.26 0.29 0.36 0.40 0.39 0.45 0.55 0.73 0.78 0.89 0.93 1.10 1.11 1.03 1.00 0.98 0.90 0.91 1.07 1.17 1.13 0.91 0.84 1.00 1.23 1.51 1.60 1.71 1.68 1.55 1.42
0.42 0.35 0.33 0.33 0.31 0.27 0.18 0.15 0.16 0.22 0.28 0.27 0.29 0.33 0.31 0.27 0.31 0.41 0.59 0.79 0.92 0.97 1.07 1.26 1.23 1.19 1.10 1.04 0.91 0.90 1.11 1.27 1.25 1.06 0.84 0.89 1.08 1.21 1.43 1.46 1.36 1.32 1.40

GEFSMA_prec_meanprecacc_186.txt.gz
Total_Precipitation_Accumulation
1.85 1.85 1.86 1.90 1.84 1.90 1.90 1.80 1.55 1.34 1.19 1.03 0.91 0.96 1.08 1.08 1.20 1.29 1.50 1.55 1.45 1.61 1.96 2.23 2.22 2.22 2.16 2.07 1.96 1.87 1.79 1.74 1.57 1.36 1.10 0.95 0.87 0.78 0.73 0.70 0.67 0.65 0.63
2.19 2.18 2.28 2.26 2.04 2.03 2.10 2.12 1.96 1.74 1.47 1.28 1.12 1.07 1.08 1.09 1.23 1.41 1.59 1.71 1.67 1.60 1.92 2.33 2.48 2.55 2.50 2.45 2.31 2.10 1.96 1.86 1.78 1.61 1.43 1.22 1.08 0.97 0.90 0.82 0.76 0.70 0.67
2.51 2.49 2.61 2.59 2.27 2.15 2.26 2.36 2.29 2.14 1.77 1.51 1.43 1.39 1.35 1.38 1.38 1.51 1.69 1.80 1.80 1.76 1.89 2.02 2.17 2.31 2.41 2.48 2.47 2.34 2.17 1.98 1.85 1.73 1.68 1.57 1.39 1.21 1.08 1.01 0.95 0.86 0.76
2.57 2.64 2.58 2.43 2.34 2.39 2.59 2.75 2.67 2.57 2.31 2.06 1.91 1.69 1.54 1.54 1.50 1.65 1.70 1.75 2.00 1.97 1.91 1.75 1.83 2.00 2.20 2.46 2.62 2.62 2.53 2.32 2.07 1.90 1.82 1.75 1.59 1.37 1.19 1.11 1.08 1.01 0.91
2.69 2.82 2.86 2.80 2.72 2.74 2.79 2.72 2.86 2.71 2.73 2.55 2.12 1.89 1.71 1.65 1.72 1.77 1.81 1.82 1.93 2.04 2.00 1.84 1.77 1.85 1.95 2.21 2.40 2.63 2.71 2.63 2.39 2.16 2.01 1.92 1.77 1.59 1.42 1.30 1.20 1.08 1.00
3.03 3.10 3.09 3.14 3.18 3.22 3.06 2.98 2.94 2.77 2.66 2.56 2.23 2.06 1.92 1.79 1.76 1.74 1.68 1.69 1.76 1.74 1.81 1.83 1.87 1.76 1.81 1.90 2.06 2.40 2.73 2.78 2.71 2.52 2.34 2.22 2.02 1.77 1.57 1.45 1.35 1.27 1.18
3.58 3.58 3.61 3.59 3.46 3.39 3.24 3.05 2.89 2.80 2.61 2.40 2.33 2.06 1.76 1.56 1.49 1.45 1.48 1.54 1.51 1.49 1.58 1.75 1.82 1.77 1.67 1.63 1.74 2.12 2.61 2.85 2.82 2.66 2.51 2.42 2.20 1.93 1.72 1.57 1.48 1.38 1.30
4.23 4.04 3.97 3.79 3.50 3.33 3.21 3.01 2.85 2.71 2.47 2.29 2.26 2.23 1.87 1.61 1.35 1.19 1.26 1.27 1.30 1.41 1.49 1.46 1.47 1.44 1.41 1.41 1.43 1.67 1.89 2.11 2.31 2.46 2.50 2.39 2.26 2.11 1.93 1.82 1.75 1.68 1.58
4.32 4.02 3.74 3.58 3.39 3.21 3.05 2.97 2.83 2.70 2.50 2.33 2.22 2.32 2.20 1.93 1.55 1.37 1.26 1.27 1.32 1.36 1.35 1.29 1.23 1.20 1.24 1.28 1.36 1.46 1.61 1.75 1.91 2.08 2.23 2.24 2.15 2.06 2.01 1.97 1.96 1.99 1.99
3.97 3.54 3.32 3.31 3.16 2.96 2.78 2.59 2.44 2.37 2.32 2.24 2.19 2.06 2.01 1.93 1.80 1.63 1.47 1.45 1.46 1.43 1.36 1.30 1.34 1.36 1.34 1.41 1.42 1.35 1.35 1.39 1.54 1.66 1.84 1.94 1.92 1.88 1.91 2.03 2.18 2.31 2.33
3.42 3.14 2.94 2.97 2.88 2.62 2.38 2.16 1.95 1.88 1.88 1.95 1.96 1.92 1.85 1.79 1.63 1.55 1.54 1.48 1.45 1.42 1.34 1.29 1.30 1.35 1.35 1.30 1.28 1.29 1.32 1.29 1.38 1.45 1.54 1.70 1.79 1.86 1.91 2.02 2.15 2.25 2.34
2.86 2.59 2.33 2.20 2.09 1.91 1.80 1.72 1.60 1.53 1.52 1.61 1.66 1.64 1.63 1.64 1.62 1.59 1.57 1.47 1.45 1.53 1.42 1.27 1.20 1.16 1.16 1.18 1.22 1.40 1.30 1.27 1.30 1.33 1.30 1.32 1.40 1.58 1.77 1.87 1.93 2.04 2.19
2.22 1.96 1.76 1.63 1.56 1.50 1.48 1.48 1.44 1.39 1.30 1.29 1.30 1.35 1.37 1.35 1.38 1.49 1.61 1.66 1.57 1.47 1.42 1.35 1.21 1.13 1.09 1.09 1.22 1.36 1.25 1.19 1.19 1.16 1.10 1.07 1.10 1.18 1.27 1.40 1.56 1.70 1.84
1.65 1.52 1.37 1.27 1.25 1.28 1.26 1.27 1.24 1.17 1.08 1.02 0.98 1.02 1.07 1.08 1.20 1.37 1.50 1.66 1.73 1.55 1.34 1.29 1.22 1.11 1.07 1.07 1.25 1.28 1.14 1.08 1.04 1.02 0.98 0.94 0.92 0.91 0.94 1.00 1.09 1.17 1.29
1.23 1.16 1.08 1.05 1.01 0.97 0.92 0.90 0.90 0.91 0.93 0.94 0.89 0.87 0.89 0.91 1.02 1.15 1.26 1.42 1.60 1.60 1.42 1.21 1.19 1.16 1.08 1.14 1.38 1.16 1.04 1.06 0.95 0.85 0.82 0.79 0.78 0.77 0.78 0.78 0.80 0.85 0.92
0.91 0.89 0.84 0.80 0.78 0.79 0.74 0.70 0.72 0.78 0.81 0.84 0.85 0.81 0.78 0.79 0.85 0.93 1.01 1.13 1.29 1.43 1.39 1.16 1.04 0.99 0.97 0.97 1.23 1.06 1.06 1.06 0.87 0.74 0.67 0.66 0.66 0.66 0.67 0.68 0.68 0.72 0.78
0.76 0.71 0.68 0.65 0.63 0.65 0.68 0.71 0.73 0.75 0.81 0.80 0.79 0.77 0.74 0.74 0.78 0.80 0.86 0.96 1.08 1.20 1.32 1.23 1.04 0.96 0.94 0.97 1.04 0.95 0.93 0.86 0.78 0.75 0.64 0.60 0.59 0.62 0.59 0.59 0.62 0.65 0.68
0.65 0.63 0.65 0.62 0.57 0.56 0.59 0.64 0.67 0.68 0.76 0.78 0.77 0.77 0.74 0.72 0.76 0.76 0.79 0.85 0.97 1.11 1.23 1.29 1.14 1.03 0.96 0.91 0.90 0.86 0.75 0.71 0.72 0.81 0.68 0.60 0.57 0.55 0.58 0.54 0.52 0.56 0.62
0.57 0.56 0.54 0.53 0.53 0.51 0.51 0.52 0.54 0.57 0.65 0.71 0.73 0.78 0.79 0.78 0.76 0.75 0.78 0.84 0.96 1.07 1.19 1.23 1.16 1.07 1.04 0.98 1.00 0.93 0.83 0.88 0.76 0.75 0.68 0.62 0.58 0.56 0.76 0.79 0.55 0.51 0.55
0.48 0.47 0.43 0.43 0.47 0.46 0.41 0.39 0.42 0.46 0.51 0.55 0.58 0.71 0.77 0.76 0.75 0.79 0.83 0.88 0.94 1.07 1.15 1.17 1.11 1.03 1.02 1.03 1.07 1.10 1.05 1.00 0.88 0.66 0.67 0.63 0.61 0.63 0.97 1.50 0.96 0.65 0.59
0.46 0.46 0.43 0.39 0.41 0.39 0.36 0.37 0.37 0.37 0.42 0.45 0.47 0.56 0.63 0.66 0.68 0.72 0.75 0.82 0.93 1.07 1.14 1.18 1.12 1.06 1.01 1.09 1.12 1.08 1.04 1.05 0.94 0.78 0.76 0.69 0.82 1.12 1.66 2.30 1.82 1.16 0.91
0.54 0.46 0.42 0.39 0.39 0.36 0.37 0.35 0.35 0.37 0.41 0.47 0.53 0.55 0.53 0.56 0.55 0.53 0.60 0.67 0.81 0.99 1.14 1.19 1.15 1.12 1.05 1.08 1.14 1.13 1.12 1.15 1.13 0.86 0.79 0.80 1.02 1.76 2.44 2.79 2.35 1.53 1.18
0.59 0.52 0.43 0.42 0.42 0.36 0.31 0.28 0.29 0.36 0.46 0.52 0.56 0.55 0.46 0.46 0.56 0.58 0.59 0.60 0.71 0.83 1.02 1.20 1.25 1.14 1.10 1.10 1.21 1.26 1.20 1.20 1.18 0.97 0.95 1.01 1.23 2.03 2.34 2.52 2.32 1.60 1.29
0.60 0.54 0.46 0.41 0.41 0.31 0.24 0.23 0.26 0.31 0.37 0.40 0.40 0.45 0.53 0.56 0.50 0.51 0.54 0.64 0.72 0.83 0.91 1.02 1.17 1.08 1.01 1.05 1.14 1.18 1.11 1.08 1.02 0.94 0.96 1.12 1.35 1.89 1.95 2.05 2.10 1.63 1.34
0.55 0.48 0.42 0.40 0.41 0.32 0.22 0.19 0.23 0.30 0.34 0.31 0.28 0.31 0.37 0.41 0.40 0.46 0.57 0.74 0.79 0.89 0.94 1.11 1.12 1.05 1.02 1.02 0.94 0.96 1.12 1.23 1.17 0.94 0.86 1.03 1.26 1.53 1.62 1.72 1.69 1.56 1.43
0.43 0.37 0.35 0.36 0.33 0.30 0.21 0.18 0.19 0.24 0.31 0.28 0.30 0.34 0.32 0.27 0.32 0.42 0.60 0.79 0.92 0.97 1.07 1.27 1.24 1.20 1.12 1.06 0.95 0.95 1.17 1.31 1.28 1.08 0.85 0.91 1.09 1.22 1.45 1.47 1.37 1.32 1.41

GEFSMA_prec_meanprecacc_192.txt.gz
Total_Precipitation_Accumulation
1.89 1.88 1.89 1.94 1.86 1.94 1.94 1.85 1.60 1.41 1.26 1.09 0.95 0.99 1.11 1.11 1.22 1.32 1.55 1.60 1.50 1.66 2.02 2.30 2.32 2.31 2.26 2.16 2.05 1.96 1.87 1.84 1.69 1.48 1.22 1.07 1.00 0.89 0.84 0.81 0.80 0.78 0.75
2.23 2.22 2.33 2.31 2.08 2.07 2.15 2.17 2.00 1.79 1.53 1.33 1.16 1.10 1.11 1.12 1.26 1.43 1.62 1.75 1.72 1.65 1.97 2.39 2.57 2.66 2.62 2.58 2.43 2.18 2.03 1.93 1.87 1.71 1.54 1.33 1.19 1.07 1.00 0.93 0.88 0.83 0.79
2.54 2.52 2.65 2.63 2.32 2.22 2.33 2.44 2.37 2.20 1.82 1.55 1.46 1.42 1.37 1.41 1.41 1.54 1.72 1.84 1.85 1.80 1.93 2.07 2.24 2.40 2.51 2.61 2.61 2.45 2.27 2.06 1.92 1.82 1.78 1.69 1.51 1.33 1.19 1.10 1.06 0.98 0.89
2.62 2.69 2.62 2.47 2.39 2.44 2.64 2.81 2.73 2.62 2.36 2.10 1.95 1.72 1.57 1.57 1.54 1.70 1.75 1.80 2.06 2.02 1.95 1.79 1.87 2.06 2.28 2.57 2.75 2.75 2.66 2.43 2.16 1.98 1.90 1.82 1.68 1.46 1.29 1.20 1.18 1.12 1.03
2.73 2.88 2.91 2.85 2.78 2.79 2.84 2.76 2.90 2.74 2.77 2.59 2.16 1.92 1.75 1.69 1.76 1.82 1.87 1.88 2.00 2.12 2.07 1.88 1.80 1.89 2.00 2.28 2.50 2.75 2.84 2.74 2.49 2.24 2.10 1.99 1.84 1.66 1.50 1.39 1.29 1.19 1.11
3.08 3.17 3.16 3.21 3.25 3.28 3.11 3.01 2.97 2.80 2.68 2.60 2.26 2.09 1.96 1.82 1.79 1.77 1.72 1.75 1.83 1.80 1.86 1.87 1.91 1.80 1.84 1.95 2.13 2.50 2.86 2.92 2.84 2.64 2.44 2.31 2.09 1.84 1.64 1.53 1.43 1.35 1.27
3.64 3.63 3.66 3.65 3.53 3.44 3.29 3.09 2.92 2.83 2.64 2.44 2.37 2.09 1.79 1.58 1.52 1.48 1.52 1.59 1.57 1.54 1.63 1.79 1.87 1.82 1.72 1.67 1.78 2.19 2.72 2.98 2.97 2.83 2.66 2.55 2.29 2.00 1.79 1.65 1.54 1.43 1.36
4.30 4.08 4.01 3.84 3.55 3.38 3.25 3.05 2.90 2.75 2.50 2.33 2.30 2.27 1.90 1.64 1.38 1.22 1.29 1.31 1.36 1.47 1.54 1.51 1.52 1.49 1.46 1.47 1.47 1.71 1.95 2.20 2.44 2.61 2.66 2.53 2.37 2.19 2.00 1.90 1.84 1.75 1.64
4.38 4.07 3.78 3.63 3.44 3.25 3.09 3.01 2.88 2.75 2.54 2.36 2.25 2.36 2.25 1.97 1.59 1.41 1.29 1.30 1.37 1.42 1.40 1.34 1.29 1.26 1.28 1.34 1.40 1.50 1.66 1.81 2.01 2.21 2.36 2.35 2.25 2.15 2.08 2.05 2.06 2.09 2.07
4.02 3.59 3.36 3.35 3.20 3.00 2.83 2.62 2.47 2.41 2.36 2.28 2.22 2.09 2.05 1.99 1.84 1.68 1.51 1.49 1.51 1.49 1.41 1.34 1.38 1.40 1.38 1.45 1.46 1.39 1.38 1.43 1.61 1.76 1.96 2.06 2.02 1.97 2.00 2.11 2.25 2.41 2.43
3.45 3.17 2.98 3.00 2.92 2.66 2.42 2.19 2.00 1.92 1.93 2.00 2.00 1.96 1.89 1.83 1.68 1.61 1.59 1.53 1.50 1.48 1.39 1.33 1.35 1.40 1.39 1.34 1.32 1.34 1.36 1.33 1.45 1.55 1.66 1.84 1.94 1.99 2.01 2.12 2.24 2.34 2.44
2.90 2.63 2.36 2.23 2.12 1.95 1.84 1.76 1.65 1.59 1.57 1.67 1.72 1.68 1.68 1.68 1.66 1.65 1.62 1.53 1.53 1.60 1.47 1.32 1.25 1.21 1.21 1.23 1.26 1.43 1.35 1.33 1.40 1.44 1.41 1.42 1.53 1.71 1.88 1.98 2.03 2.14 2.29
2.29 2.01 1.80 1.68 1.61 1.55 1.52 1.51 1.49 1.44 1.35 1.34 1.36 1.40 1.42 1.40 1.43 1.54 1.67 1.72 1.65 1.55 1.48 1.39 1.26 1.18 1.15 1.14 1.26 1.39 1.30 1.26 1.31 1.33 1.23 1.17 1.19 1.29 1.39 1.51 1.66 1.79 1.93
1.70 1.58 1.44 1.33 1.30 1.32 1.30 1.31 1.30 1.23 1.13 1.07 1.03 1.06 1.12 1.12 1.24 1.43 1.55 1.72 1.81 1.63 1.40 1.33 1.26 1.16 1.13 1.13 1.30 1.33 1.17 1.14 1.12 1.16 1.14 1.06 1.00 1.00 1.04 1.11 1.20 1.26 1.38
1.27 1.22 1.14 1.10 1.05 1.01 0.97 0.94 0.95 0.97 0.99 0.99 0.94 0.91 0.93 0.96 1.07 1.20 1.30 1.49 1.68 1.68 1.48 1.26 1.23 1.20 1.12 1.19 1.43 1.20 1.08 1.11 1.02 0.93 0.92 0.90 0.88 0.86 0.86 0.86 0.87 0.93 0.99
0.94 0.94 0.90 0.85 0.85 0.87 0.81 0.74 0.76 0.82 0.85 0.88 0.89 0.84 0.82 0.84 0.89 0.97 1.05 1.18 1.36 1.51 1.46 1.21 1.09 1.03 1.01 1.01 1.27 1.09 1.09 1.09 0.92 0.79 0.73 0.73 0.74 0.73 0.72 0.73 0.73 0.77 0.82
0.79 0.75 0.72 0.68 0.68 0.70 0.72 0.75 0.75 0.77 0.83 0.83 0.82 0.81 0.79 0.78 0.81 0.83 0.89 0.99 1.13 1.26 1.39 1.28 1.08 0.99 0.98 1.01 1.08 1.00 0.97 0.90 0.82 0.80 0.70 0.66 0.64 0.66 0.63 0.62 0.66 0.68 0.71
0.66 0.65 0.67 0.64 0.59 0.57 0.61 0.67 0.70 0.70 0.79 0.80 0.79 0.79 0.76 0.76 0.80 0.79 0.81 0.88 1.01 1.15 1.28 1.33 1.19 1.08 1.01 0.96 0.96 0.93 0.81 0.77 0.77 0.86 0.73 0.64 0.60 0.58 0.60 0.56 0.54 0.58 0.64
0.58 0.58 0.55 0.54 0.54 0.52 0.52 0.54 0.57 0.60 0.68 0.74 0.75 0.80 0.81 0.81 0.79 0.77 0.81 0.87 0.99 1.11 1.24 1.27 1.20 1.12 1.08 1.02 1.04 0.98 0.88 0.94 0.80 0.79 0.71 0.66 0.61 0.58 0.77 0.80 0.56 0.52 0.56
0.50 0.49 0.44 0.44 0.49 0.48 0.42 0.41 0.45 0.49 0.55 0.58 0.61 0.73 0.79 0.79 0.78 0.82 0.86 0.91 0.98 1.11 1.19 1.22 1.15 1.08 1.06 1.07 1.11 1.15 1.10 1.04 0.92 0.70 0.72 0.68 0.65 0.65 0.98 1.51 0.97 0.66 0.60
0.47 0.47 0.45 0.41 0.43 0.41 0.38 0.39 0.40 0.40 0.46 0.49 0.51 0.59 0.65 0.68 0.70 0.74 0.77 0.85 0.97 1.11 1.17 1.21 1.16 1.10 1.04 1.13 1.17 1.13 1.09 1.10 0.97 0.81 0.80 0.72 0.85 1.15 1.68 2.32 1.83 1.17 0.92
0.55 0.48 0.44 0.41 0.41 0.38 0.38 0.36 0.37 0.39 0.44 0.51 0.56 0.58 0.55 0.57 0.57 0.56 0.63 0.71 0.85 1.03 1.17 1.22 1.18 1.15 1.08 1.11 1.18 1.17 1.17 1.20 1.17 0.90 0.83 0.83 1.05 1.80 2.48 2.82 2.36 1.54 1.19
0.61 0.54 0.45 0.44 0.44 0.37 0.32 0.29 0.30 0.38 0.48 0.55 0.60 0.59 0.49 0.48 0.58 0.60 0.61 0.63 0.73 0.85 1.05 1.23 1.28 1.18 1.13 1.13 1.24 1.29 1.23 1.23 1.21 1.01 0.99 1.04 1.26 2.05 2.36 2.54 2.34 1.61 1.31
0.61 0.56 0.48 0.44 0.44 0.34 0.27 0.26 0.29 0.33 0.40 0.43 0.44 0.50 0.58 0.60 0.54 0.56 0.57 0.68 0.76 0.86 0.94 1.04 1.20 1.12 1.05 1.09 1.18 1.21 1.15 1.12 1.06 0.98 0.99 1.15 1.37 1.92 1.96 2.07 2.12 1.65 1.35
0.57 0.51 0.44 0.42 0.43 0.35 0.26 0.24 0.28 0.34 0.38 0.36 0.32 0.36 0.42 0.46 0.44 0.52 0.63 0.79 0.84 0.94 0.97 1.12 1.13 1.06 1.03 1.03 0.97 0.99 1.16 1.27 1.21 0.98 0.89 1.06 1.28 1.55 1.64 1.73 1.70 1.57 1.44
0.46 0.40 0.38 0.38 0.36 0.33 0.25 0.21 0.23 0.29 0.36 0.33 0.35 0.40 0.39 0.33 0.36 0.47 0.66 0.85 0.98 1.02 1.11 1.29 1.26 1.21 1.12 1.07 0.96 0.98 1.21 1.37 1.33 1.12 0.88 0.94 1.12 1.25 1.47 1.49 1.39 1.34 1.42

GEFSMA_prec_meanprecacc_198.txt.gz
Total_Precipitation_Accumulation
1.99 1.97 1.97 2.02 1.93 2.00 2.00 1.89 1.63 1.44 1.29 1.13 0.98 1.03 1.15 1.14 1.25 1.38 1.64 1.68 1.55 1.70 2.06 2.35 2.37 2.37 2.33 2.23 2.13 2.06 1.98 1.92 1.76 1.56 1.31 1.18 1.11 0.99 0.96 0.94 0.93 0.90 0.86
2.33 2.33 2.43 2.41 2.16 2.13 2.21 2.22 2.05 1.84 1.57 1.36 1.19 1.16 1.17 1.18 1.30 1.47 1.68 1.82 1.76 1.67 2.00 2.43 2.61 2.70 2.67 2.65 2.52 2.28 2.12 2.02 1.95 1.78 1.61 1.42 1.29 1.17 1.10 1.04 1.00 0.95 0.90
2.65 2.62 2.76 2.74 2.40 2.29 2.40 2.50 2.44 2.26 1.87 1.59 1.49 1.45 1.40 1.44 1.44 1.56 1.75 1.89 1.90 1.84 1.95 2.09 2.27 2.44 2.57 2.68 2.69 2.54 2.35 2.14 2.00 1.89 1.85 1.76 1.58 1.41 1.28 1.21 1.16 1.08 0.99
2.68 2.77 2.70 2.54 2.47 2.52 2.73 2.91 2.82 2.70 2.42 2.15 1.98 1.76 1.61 1.61 1.56 1.73 1.79 1.86 2.14 2.09 2.00 1.82 1.89 2.08 2.31 2.60 2.80 2.82 2.73 2.51 2.24 2.05 1.97 1.88 1.74 1.53 1.37 1.30 1.28 1.21 1.12
2.79 2.95 2.98 2.93 2.87 2.89 2.95 2.86 3.00 2.83 2.83 2.64 2.21 1.97 1.79 1.72 1.80 1.86 1.92 1.94 2.06 2.18 2.14 1.92 1.82 1.91 2.02 2.31 2.54 2.80 2.90 2.82 2.57 2.31 2.15 2.04 1.88 1.71 1.56 1.45 1.38 1.30 1.21
3.14 3.23 3.21 3.26 3.31 3.35 3.18 3.08 3.06 2.88 2.75 2.66 2.30 2.13 1.99 1.86 1.83 1.82 1.76 1.80 1.89 1.86 1.94 1.93 1.97 1.84 1.88 1.99 2.18 2.55 2.92 3.01 2.93 2.71 2.51 2.36 2.13 1.88 1.68 1.58 1.49 1.43 1.36
3.71 3.70 3.72 3.70 3.58 3.49 3.34 3.14 2.99 2.89 2.70 2.50 2.43 2.14 1.83 1.61 1.55 1.52 1.56 1.64 1.63 1.60 1.70 1.87 1.96 1.92 1.80 1.73 1.84 2.25 2.78 3.05 3.04 2.91 2.74 2.62 2.36 2.05 1.83 1.69 1.60 1.50 1.43
4.37 4.14 4.07 3.90 3.60 3.43 3.30 3.10 2.95 2.81 2.56 2.41 2.37 2.34 1.97 1.69 1.42 1.26 1.34 1.36 1.42 1.54 1.61 1.58 1.61 1.62 1.59 1.60 1.55 1.77 2.01 2.26 2.51 2.69 2.75 2.62 2.45 2.26 2.05 1.94 1.88 1.79 1.69
4.43 4.11 3.83 3.67 3.49 3.31 3.15 3.06 2.94 2.81 2.60 2.42 2.32 2.44 2.32 2.04 1.67 1.48 1.35 1.36 1.43 1.48 1.47 1.42 1.38 1.38 1.42 1.49 1.52 1.58 1.71 1.85 2.07 2.29 2.45 2.44 2.34 2.23 2.15 2.11 2.11 2.13 2.11
4.06 3.62 3.40 3.39 3.25 3.05 2.88 2.67 2.53 2.47 2.42 2.33 2.27 2.16 2.12 2.07 1.93 1.76 1.57 1.55 1.56 1.55 1.48 1.42 1.48 1.52 1.51 1.58 1.59 1.47 1.44 1.47 1.66 1.83 2.03 2.12 2.09 2.05 2.07 2.18 2.32 2.46 2.49
3.48 3.21 3.02 3.04 2.96 2.71 2.48 2.25 2.06 1.99 1.99 2.06 2.07 2.02 1.95 1.91 1.77 1.69 1.65 1.58 1.55 1.53 1.45 1.41 1.45 1.52 1.51 1.46 1.45 1.44 1.42 1.37 1.49 1.61 1.71 1.89 2.00 2.04 2.07 2.18 2.30 2.41 2.51
2.95 2.66 2.40 2.28 2.16 2.00 1.90 1.81 1.70 1.65 1.64 1.74 1.80 1.77 1.76 1.77 1.75 1.74 1.71 1.59 1.58 1.64 1.51 1.38 1.32 1.29 1.30 1.34 1.36 1.51 1.42 1.39 1.44 1.49 1.45 1.46 1.56 1.76 1.92 2.02 2.08 2.19 2.35
2.35 2.06 1.85 1.73 1.66 1.61 1.57 1.56 1.53 1.49 1.40 1.41 1.44 1.48 1.51 1.49 1.53 1.65 1.78 1.79 1.71 1.60 1.51 1.43 1.30 1.24 1.22 1.23 1.36 1.47 1.36 1.31 1.36 1.38 1.28 1.20 1.22 1.32 1.43 1.55 1.70 1.84 1.99
1.79 1.66 1.50 1.39 1.36 1.38 1.34 1.36 1.34 1.28 1.19 1.14 1.10 1.15 1.21 1.21 1.34 1.53 1.65 1.81 1.87 1.67 1.44 1.37 1.30 1.21 1.19 1.21 1.37 1.39 1.23 1.17 1.16 1.20 1.19 1.11 1.05 1.04 1.08 1.15 1.24 1.31 1.45
1.34 1.31 1.24 1.17 1.11 1.06 1.01 1.00 1.00 1.02 1.05 1.07 1.01 0.99 1.02 1.04 1.15 1.29 1.40 1.59 1.77 1.74 1.51 1.29 1.27 1.25 1.19 1.26 1.47 1.24 1.13 1.14 1.04 0.97 0.97 0.95 0.93 0.91 0.91 0.90 0.91 0.97 1.04
1.00 1.01 0.97 0.90 0.89 0.92 0.87 0.81 0.81 0.86 0.90 0.95 0.97 0.92 0.91 0.93 0.97 1.03 1.11 1.25 1.43 1.57 1.51 1.26 1.13 1.07 1.06 1.07 1.31 1.14 1.14 1.14 0.95 0.83 0.77 0.78 0.78 0.78 0.77 0.78 0.77 0.81 0.87
0.85 0.80 0.76 0.72 0.72 0.75 0.77 0.80 0.79 0.80 0.86 0.87 0.87 0.86 0.85 0.86 0.90 0.89 0.94 1.04 1.18 1.32 1.45 1.35 1.15 1.04 1.03 1.08 1.13 1.05 1.01 0.94 0.86 0.84 0.73 0.69 0.67 0.69 0.67 0.67 0.71 0.74 0.77
0.72 0.70 0.71 0.67 0.62 0.60 0.64 0.69 0.73 0.73 0.81 0.83 0.82 0.84 0.82 0.82 0.87 0.86 0.88 0.93 1.05 1.20 1.35 1.41 1.26 1.14 1.05 1.01 1.02 0.99 0.85 0.79 0.80 0.89 0.75 0.68 0.63 0.61 0.65 0.61 0.59 0.64 0.71
0.63 0.61 0.58 0.57 0.57 0.54 0.54 0.56 0.59 0.62 0.70 0.76 0.78 0.85 0.86 0.86 0.84 0.83 0.86 0.92 1.04 1.16 1.31 1.36 1.28 1.19 1.14 1.07 1.10 1.03 0.92 0.99 0.83 0.82 0.74 0.69 0.65 0.61 0.80 0.84 0.60 0.57 0.61
0.54 0.52 0.47 0.47 0.52 0.50 0.44 0.43 0.46 0.51 0.58 0.62 0.65 0.78 0.85 0.84 0.84 0.87 0.90 0.95 1.03 1.17 1.26 1.30 1.24 1.15 1.13 1.12 1.17 1.20 1.15 1.09 0.96 0.73 0.75 0.71 0.69 0.69 1.01 1.54 0.99 0.68 0.64
0.52 0.51 0.48 0.43 0.46 0.43 0.39 0.40 0.42 0.42 0.50 0.53 0.55 0.63 0.70 0.71 0.73 0.78 0.81 0.89 1.01 1.16 1.23 1.29 1.25 1.18 1.10 1.20 1.23 1.19 1.15 1.15 1.01 0.85 0.83 0.76 0.89 1.19 1.73 2.35 1.86 1.20 0.95
0.61 0.52 0.47 0.44 0.44 0.40 0.39 0.37 0.39 0.42 0.48 0.56 0.62 0.63 0.59 0.60 0.59 0.58 0.65 0.74 0.89 1.08 1.23 1.30 1.27 1.23 1.16 1.19 1.26 1.25 1.24 1.26 1.23 0.95 0.88 0.88 1.10 1.84 2.51 2.84 2.39 1.56 1.21
0.66 0.58 0.48 0.48 0.48 0.40 0.34 0.31 0.32 0.40 0.51 0.60 0.66 0.65 0.53 0.51 0.61 0.64 0.65 0.67 0.78 0.89 1.10 1.30 1.36 1.26 1.21 1.21 1.33 1.39 1.34 1.31 1.29 1.07 1.05 1.11 1.32 2.10 2.39 2.57 2.36 1.63 1.32
0.66 0.59 0.51 0.48 0.48 0.36 0.30 0.28 0.31 0.36 0.44 0.47 0.49 0.55 0.63 0.65 0.58 0.60 0.62 0.73 0.82 0.92 1.00 1.11 1.27 1.20 1.12 1.18 1.28 1.32 1.26 1.21 1.13 1.03 1.05 1.22 1.44 1.97 2.00 2.11 2.15 1.66 1.37
0.62 0.54 0.47 0.47 0.47 0.38 0.30 0.26 0.29 0.36 0.41 0.38 0.35 0.39 0.46 0.50 0.48 0.55 0.67 0.83 0.89 1.00 1.03 1.19 1.21 1.14 1.11 1.11 1.05 1.09 1.27 1.36 1.28 1.03 0.95 1.12 1.33 1.61 1.68 1.78 1.74 1.60 1.46
0.53 0.44 0.41 0.42 0.40 0.38 0.29 0.24 0.26 0.31 0.39 0.36 0.38 0.43 0.43 0.37 0.40 0.51 0.70 0.89 1.04 1.08 1.17 1.37 1.35 1.30 1.20 1.13 1.03 1.05 1.29 1.45 1.40 1.17 0.92 0.99 1.15 1.30 1.52 1.53 1.43 1.36 1.44

GEFSMA_prec_meanprecacc_204.txt.gz
Total_Precipitation_Accumulation
2.04 2.02 2.01 2.05 1.96 2.04 2.05 1.94 1.68 1.49 1.35 1.17 1.02 1.07 1.18 1.17 1.29 1.42 1.68 1.73 1.59 1.76 2.14 2.43 2.45 2.46 2.40 2.31 2.20 2.13 2.04 1.98 1.83 1.62 1.37 1.22 1.16 1.06 1.03 1.03 1.04 1.01 0.95
2.42 2.40 2.48 2.46 2.21 2.20 2.28 2.30 2.13 1.90 1.62 1.41 1.24 1.20 1.20 1.21 1.34 1.52 1.73 1.87 1.80 1.72 2.06 2.49 2.68 2.78 2.75 2.74 2.61 2.35 2.17 2.06 2.00 1.84 1.67 1.46 1.33 1.22 1.16 1.11 1.08 1.03 0.99
2.70 2.67 2.82 2.80 2.47 2.36 2.48 2.58 2.52 2.34 1.94 1.65 1.54 1.50 1.44 1.48 1.49 1.59 1.78 1.92 1.93 1.88 1.99 2.13 2.32 2.49 2.63 2.77 2.80 2.63 2.41 2.18 2.05 1.94 1.90 1.81 1.63 1.45 1.32 1.25 1.21 1.14 1.06
2.73 2.82 2.75 2.59 2.51 2.57 2.80 2.99 2.90 2.78 2.49 2.22 2.04 1.79 1.63 1.64 1.61 1.77 1.83 1.90 2.18 2.12 2.04 1.85 1.92 2.11 2.35 2.67 2.90 2.93 2.82 2.58 2.30 2.10 2.02 1.92 1.78 1.57 1.40 1.33 1.32 1.26 1.17
2.87 3.01 3.02 2.97 2.90 2.92 2.99 2.91 3.05 2.88 2.90 2.70 2.26 2.02 1.82 1.77 1.84 1.89 1.95 1.97 2.09 2.21 2.17 1.95 1.86 1.94 2.06 2.36 2.61 2.90 3.00 2.91 2.64 2.38 2.22 2.10 1.94 1.76 1.60 1.50 1.41 1.33 1.25
3.20 3.28 3.25 3.31 3.35 3.39 3.22 3.14 3.13 2.94 2.81 2.70 2.34 2.17 2.03 1.90 1.86 1.84 1.78 1.82 1.91 1.88 1.96 1.96 1.99 1.87 1.92 2.04 2.23 2.61 3.00 3.11 3.04 2.81 2.60 2.44 2.20 1.94 1.73 1.63 1.54 1.47 1.40
3.76 3.76 3.77 3.76 3.63 3.55 3.39 3.20 3.06 2.96 2.75 2.54 2.47 2.18 1.87 1.64 1.58 1.54 1.58 1.66 1.65 1.63 1.72 1.89 1.99 1.95 1.83 1.79 1.91 2.32 2.87 3.15 3.16 3.02 2.85 2.71 2.44 2.12 1.89 1.74 1.65 1.55 1.48
4.44 4.21 4.14 3.95 3.66 3.48 3.35 3.14 2.99 2.85 2.60 2.45 2.41 2.38 2.00 1.71 1.44 1.28 1.36 1.38 1.45 1.57 1.65 1.62 1.66 1.67 1.64 1.65 1.60 1.83 2.07 2.33 2.60 2.80 2.87 2.74 2.54 2.33 2.11 1.99 1.93 1.85 1.75
4.50 4.18 3.89 3.73 3.55 3.36 3.19 3.09 2.97 2.85 2.63 2.46 2.37 2.50 2.36 2.07 1.70 1.51 1.38 1.40 1.47 1.52 1.52 1.47 1.43 1.42 1.46 1.54 1.57 1.63 1.77 1.90 2.13 2.37 2.56 2.56 2.45 2.31 2.22 2.17 2.15 2.18 2.17
4.15 3.71 3.48 3.46 3.30 3.09 2.92 2.70 2.56 2.51 2.45 2.36 2.32 2.21 2.19 2.13 1.98 1.80 1.61 1.61 1.63 1.60 1.54 1.49 1.53 1.58 1.58 1.64 1.63 1.51 1.47 1.51 1.71 1.89 2.13 2.25 2.19 2.13 2.14 2.24 2.37 2.51 2.54
3.57 3.30 3.11 3.11 3.01 2.76 2.53 2.29 2.09 2.01 2.02 2.10 2.12 2.09 2.02 1.97 1.83 1.75 1.68 1.61 1.58 1.57 1.50 1.47 1.51 1.58 1.57 1.51 1.48 1.46 1.46 1.41 1.52 1.65 1.78 1.98 2.09 2.13 2.15 2.26 2.36 2.47 2.57
3.03 2.74 2.47 2.35 2.23 2.07 1.96 1.86 1.73 1.67 1.66 1.78 1.86 1.83 1.82 1.82 1.79 1.79 1.75 1.62 1.60 1.67 1.56 1.43 1.36 1.33 1.34 1.39 1.42 1.54 1.46 1.44 1.49 1.53 1.49 1.51 1.63 1.83 2.00 2.10 2.14 2.25 2.42
2.41 2.13 1.93 1.82 1.76 1.70 1.64 1.61 1.56 1.51 1.43 1.45 1.48 1.52 1.55 1.52 1.56 1.69 1.82 1.83 1.75 1.63 1.55 1.47 1.32 1.27 1.26 1.28 1.43 1.55 1.41 1.36 1.42 1.43 1.33 1.26 1.27 1.38 1.49 1.62 1.77 1.90 2.05
1.87 1.74 1.59 1.49 1.46 1.46 1.41 1.40 1.36 1.29 1.21 1.16 1.12 1.18 1.24 1.24 1.38 1.58 1.70 1.86 1.91 1.71 1.47 1.39 1.32 1.23 1.22 1.25 1.44 1.48 1.29 1.23 1.21 1.26 1.25 1.18 1.12 1.11 1.15 1.22 1.30 1.37 1.49
1.43 1.41 1.35 1.27 1.17 1.10 1.05 1.04 1.03 1.04 1.07 1.08 1.03 1.01 1.04 1.07 1.19 1.32 1.44 1.64 1.83 1.78 1.53 1.31 1.28 1.27 1.21 1.29 1.51 1.30 1.19 1.20 1.09 1.01 1.02 1.02 1.00 0.98 0.98 0.97 0.98 1.03 1.08
1.09 1.11 1.06 0.99 0.96 0.97 0.91 0.85 0.84 0.88 0.91 0.96 0.98 0.92 0.92 0.94 0.99 1.05 1.13 1.28 1.47 1.62 1.55 1.28 1.16 1.11 1.09 1.09 1.34 1.18 1.18 1.20 1.00 0.88 0.82 0.82 0.83 0.83 0.82 0.82 0.84 0.87 0.92
0.93 0.89 0.86 0.83 0.81 0.81 0.80 0.82 0.80 0.81 0.87 0.88 0.88 0.87 0.86 0.87 0.92 0.92 0.96 1.06 1.20 1.35 1.50 1.40 1.18 1.07 1.05 1.10 1.15 1.07 1.04 0.98 0.91 0.88 0.76 0.71 0.72 0.74 0.71 0.71 0.76 0.79 0.81
0.81 0.79 0.80 0.76 0.68 0.65 0.68 0.72 0.74 0.74 0.82 0.83 0.83 0.85 0.83 0.84 0.88 0.88 0.90 0.95 1.07 1.23 1.38 1.45 1.29 1.16 1.07 1.03 1.04 1.01 0.86 0.81 0.83 0.93 0.79 0.70 0.66 0.64 0.68 0.64 0.63 0.69 0.76
0.75 0.73 0.68 0.66 0.64 0.60 0.61 0.61 0.62 0.64 0.71 0.77 0.79 0.85 0.88 0.87 0.86 0.84 0.88 0.94 1.05 1.18 1.33 1.38 1.31 1.22 1.17 1.09 1.12 1.05 0.94 1.00 0.85 0.85 0.78 0.72 0.67 0.64 0.83 0.87 0.63 0.60 0.65
0.65 0.61 0.55 0.54 0.60 0.58 0.51 0.49 0.51 0.54 0.60 0.63 0.66 0.79 0.86 0.86 0.85 0.90 0.93 0.98 1.05 1.20 1.30 1.34 1.27 1.19 1.16 1.16 1.20 1.22 1.16 1.11 0.97 0.76 0.77 0.74 0.71 0.71 1.04 1.56 1.01 0.71 0.68
0.64 0.62 0.56 0.51 0.54 0.52 0.46 0.46 0.46 0.46 0.52 0.55 0.57 0.65 0.71 0.74 0.75 0.81 0.84 0.92 1.05 1.19 1.27 1.32 1.28 1.21 1.14 1.23 1.26 1.21 1.17 1.17 1.04 0.88 0.85 0.78 0.92 1.22 1.76 2.39 1.89 1.23 0.99
0.70 0.65 0.59 0.55 0.54 0.47 0.44 0.41 0.42 0.45 0.51 0.58 0.65 0.66 0.61 0.62 0.60 0.59 0.66 0.76 0.91 1.10 1.26 1.32 1.30 1.26 1.19 1.22 1.29 1.27 1.27 1.29 1.27 0.99 0.91 0.91 1.13 1.87 2.56 2.89 2.43 1.59 1.25
0.78 0.67 0.58 0.56 0.55 0.45 0.38 0.33 0.34 0.43 0.54 0.63 0.69 0.67 0.55 0.53 0.63 0.64 0.65 0.69 0.80 0.92 1.13 1.33 1.39 1.29 1.25 1.26 1.37 1.42 1.37 1.35 1.33 1.12 1.09 1.15 1.36 2.13 2.43 2.60 2.39 1.65 1.34
0.75 0.67 0.58 0.55 0.53 0.39 0.33 0.31 0.33 0.39 0.46 0.49 0.51 0.58 0.66 0.67 0.60 0.62 0.63 0.75 0.83 0.94 1.02 1.14 1.31 1.24 1.18 1.24 1.34 1.37 1.31 1.26 1.18 1.09 1.10 1.26 1.48 2.00 2.02 2.13 2.17 1.68 1.38
0.70 0.62 0.56 0.53 0.51 0.40 0.33 0.30 0.32 0.39 0.43 0.40 0.37 0.41 0.48 0.52 0.50 0.58 0.69 0.86 0.91 1.02 1.05 1.22 1.24 1.18 1.16 1.17 1.12 1.15 1.33 1.42 1.33 1.08 1.00 1.17 1.38 1.66 1.71 1.80 1.76 1.62 1.47
0.65 0.53 0.48 0.47 0.44 0.41 0.32 0.27 0.29 0.34 0.41 0.39 0.41 0.47 0.46 0.40 0.42 0.53 0.72 0.92 1.06 1.11 1.19 1.39 1.37 1.33 1.23 1.17 1.07 1.10 1.37 1.54 1.49 1.24 0.99 1.05 1.21 1.35 1.56 1.54 1.45 1.38 1.45

GEFSMA_prec_meanprecacc_210.txt.gz
Total_Precipitation_Accumulation
2.10 2.10 2.09 2.12 2.03 2.11 2.12 2.02 1.75 1.57 1.42 1.23 1.08 1.12 1.23 1.22 1.33 1.44 1.71 1.78 1.65 1.83 2.22 2.52 2.54 2.55 2.50 2.40 2.29 2.22 2.14 2.09 1.94 1.72 1.44 1.28 1.22 1.11 1.09 1.08 1.11 1.09 1.04
2.48 2.47 2.56 2.54 2.29 2.28 2.36 2.39 2.22 1.99 1.70 1.49 1.31 1.27 1.26 1.25 1.37 1.55 1.76 1.91 1.85 1.78 2.10 2.54 2.75 2.87 2.85 2.83 2.70 2.46 2.28 2.17 2.10 1.94 1.76 1.53 1.39 1.27 1.21 1.16 1.14 1.10 1.07
2.77 2.76 2.91 2.89 2.56 2.46 2.57 2.67 2.62 2.43 2.03 1.75 1.64 1.61 1.54 1.55 1.53 1.62 1.81 1.95 1.96 1.91 2.03 2.17 2.37 2.56 2.70 2.84 2.88 2.73 2.53 2.31 2.17 2.06 2.00 1.89 1.70 1.51 1.38 1.31 1.27 1.20 1.12
2.82 2.91 2.85 2.70 2.62 2.67 2.89 3.07 2.98 2.86 2.57 2.30 2.10 1.86 1.70 1.69 1.64 1.79 1.84 1.91 2.19 2.14 2.07 1.89 1.97 2.17 2.41 2.74 2.99 3.03 2.91 2.69 2.41 2.21 2.14 2.04 1.87 1.64 1.47 1.39 1.37 1.30 1.22
2.94 3.09 3.11 3.06 2.99 3.01 3.08 2.98 3.11 2.94 2.96 2.77 2.32 2.06 1.86 1.80 1.86 1.91 1.97 1.98 2.10 2.23 2.19 1.98 1.91 2.00 2.12 2.43 2.69 2.97 3.09 3.00 2.75 2.49 2.33 2.22 2.06 1.86 1.69 1.57 1.48 1.40 1.31
3.24 3.35 3.31 3.37 3.43 3.47 3.31 3.21 3.19 3.00 2.86 2.77 2.42 2.22 2.06 1.92 1.88 1.86 1.81 1.85 1.95 1.91 1.99 1.98 2.02 1.91 1.98 2.11 2.31 2.69 3.08 3.19 3.13 2.91 2.71 2.57 2.32 2.06 1.84 1.72 1.62 1.56 1.48
3.82 3.83 3.85 3.83 3.71 3.62 3.47 3.28 3.14 3.01 2.80 2.60 2.54 2.24 1.90 1.66 1.60 1.56 1.60 1.68 1.68 1.66 1.75 1.92 2.02 1.97 1.86 1.83 1.97 2.40 2.96 3.24 3.24 3.13 2.97 2.87 2.58 2.24 1.99 1.82 1.72 1.63 1.56
4.51 4.30 4.24 4.04 3.73 3.54 3.40 3.20 3.05 2.90 2.64 2.49 2.46 2.44 2.05 1.74 1.46 1.30 1.38 1.40 1.46 1.60 1.68 1.65 1.68 1.69 1.66 1.68 1.64 1.88 2.15 2.42 2.68 2.90 3.00 2.91 2.72 2.47 2.23 2.09 2.02 1.93 1.83
4.58 4.28 3.98 3.81 3.62 3.43 3.26 3.16 3.03 2.90 2.67 2.50 2.41 2.55 2.41 2.10 1.71 1.52 1.40 1.41 1.48 1.54 1.54 1.49 1.46 1.45 1.49 1.57 1.60 1.67 1.82 1.97 2.20 2.45 2.66 2.70 2.63 2.49 2.35 2.28 2.26 2.27 2.25
4.23 3.79 3.56 3.54 3.38 3.17 2.99 2.77 2.63 2.57 2.50 2.41 2.36 2.25 2.23 2.16 2.01 1.81 1.62 1.62 1.64 1.61 1.55 1.50 1.55 1.60 1.61 1.68 1.67 1.55 1.52 1.55 1.77 1.97 2.20 2.33 2.31 2.29 2.29 2.38 2.49 2.62 2.63
3.64 3.36 3.16 3.18 3.09 2.84 2.61 2.37 2.18 2.09 2.09 2.15 2.17 2.13 2.05 2.00 1.85 1.76 1.69 1.62 1.59 1.58 1.51 1.48 1.53 1.60 1.60 1.54 1.51 1.49 1.50 1.44 1.56 1.70 1.84 2.05 2.18 2.22 2.26 2.37 2.48 2.57 2.65
3.08 2.77 2.51 2.39 2.28 2.13 2.02 1.92 1.80 1.74 1.73 1.83 1.89 1.85 1.84 1.85 1.82 1.81 1.76 1.63 1.61 1.68 1.56 1.44 1.37 1.34 1.35 1.40 1.43 1.56 1.48 1.46 1.52 1.55 1.53 1.56 1.71 1.91 2.08 2.19 2.24 2.36 2.52
2.44 2.15 1.96 1.85 1.78 1.73 1.67 1.64 1.60 1.55 1.46 1.49 1.52 1.55 1.57 1.55 1.59 1.71 1.84 1.84 1.76 1.64 1.56 1.48 1.33 1.28 1.28 1.29 1.45 1.56 1.43 1.38 1.44 1.45 1.35 1.29 1.34 1.47 1.56 1.69 1.85 2.01 2.16
1.89 1.77 1.63 1.53 1.49 1.49 1.45 1.45 1.42 1.33 1.25 1.22 1.17 1.21 1.27 1.27 1.41 1.60 1.72 1.88 1.93 1.72 1.48 1.41 1.33 1.24 1.25 1.27 1.45 1.49 1.30 1.24 1.22 1.28 1.28 1.22 1.18 1.19 1.22 1.28 1.37 1.44 1.60
1.46 1.44 1.39 1.34 1.25 1.18 1.12 1.11 1.09 1.08 1.10 1.11 1.06 1.03 1.06 1.09 1.20 1.34 1.46 1.68 1.87 1.81 1.55 1.33 1.31 1.28 1.23 1.30 1.52 1.30 1.19 1.21 1.10 1.03 1.04 1.04 1.05 1.07 1.07 1.03 1.04 1.09 1.16
1.13 1.15 1.11 1.06 1.05 1.06 0.99 0.91 0.87 0.90 0.93 0.97 1.00 0.94 0.93 0.95 1.00 1.06 1.15 1.30 1.50 1.65 1.57 1.30 1.18 1.12 1.10 1.09 1.34 1.18 1.19 1.21 1.02 0.89 0.84 0.85 0.88 0.92 0.93 0.89 0.89 0.93 0.99
0.96 0.93 0.92 0.89 0.87 0.87 0.86 0.87 0.84 0.84 0.89 0.90 0.90 0.88 0.86 0.87 0.92 0.92 0.96 1.07 1.21 1.38 1.52 1.41 1.21 1.10 1.06 1.10 1.16 1.08 1.05 0.99 0.92 0.90 0.78 0.73 0.75 0.81 0.81 0.79 0.82 0.85 0.87
0.85 0.82 0.83 0.79 0.72 0.70 0.74 0.79 0.81 0.80 0.88 0.87 0.85 0.86 0.84 0.84 0.89 0.88 0.91 0.96 1.09 1.26 1.41 1.48 1.31 1.18 1.09 1.04 1.05 1.01 0.87 0.82 0.83 0.94 0.81 0.72 0.68 0.67 0.73 0.71 0.71 0.75 0.81
0.80 0.77 0.71 0.69 0.68 0.65 0.67 0.67 0.67 0.70 0.76 0.81 0.82 0.88 0.90 0.89 0.87 0.85 0.89 0.95 1.07 1.20 1.36 1.41 1.35 1.24 1.19 1.10 1.13 1.06 0.94 1.00 0.85 0.86 0.80 0.74 0.69 0.66 0.86 0.92 0.70 0.66 0.70
0.70 0.68 0.60 0.59 0.65 0.65 0.58 0.54 0.55 0.59 0.64 0.66 0.69 0.82 0.88 0.88 0.88 0.92 0.95 0.99 1.07 1.22 1.32 1.36 1.30 1.22 1.18 1.18 1.22 1.24 1.18 1.12 0.98 0.77 0.80 0.76 0.74 0.74 1.07 1.61 1.08 0.77 0.73
0.69 0.68 0.61 0.55 0.59 0.59 0.54 0.52 0.49 0.49 0.55 0.58 0.60 0.68 0.75 0.77 0.77 0.83 0.85 0.93 1.06 1.21 1.28 1.34 1.30 1.24 1.17 1.25 1.29 1.23 1.18 1.19 1.06 0.90 0.88 0.81 0.94 1.24 1.79 2.42 1.93 1.28 1.04
0.77 0.72 0.66 0.60 0.58 0.56 0.55 0.48 0.46 0.47 0.53 0.61 0.67 0.70 0.65 0.66 0.64 0.62 0.68 0.78 0.93 1.12 1.27 1.34 1.31 1.28 1.22 1.23 1.32 1.31 1.29 1.32 1.30 1.02 0.93 0.93 1.15 1.89 2.58 2.92 2.46 1.63 1.29
0.88 0.77 0.66 0.62 0.59 0.52 0.45 0.38 0.37 0.44 0.56 0.66 0.73 0.71 0.61 0.59 0.68 0.68 0.68 0.71 0.82 0.94 1.15 1.35 1.41 1.30 1.26 1.27 1.39 1.46 1.39 1.38 1.36 1.15 1.13 1.19 1.39 2.17 2.46 2.64 2.45 1.71 1.40
0.81 0.75 0.66 0.61 0.57 0.43 0.36 0.34 0.35 0.40 0.48 0.51 0.55 0.63 0.72 0.73 0.67 0.69 0.68 0.78 0.87 0.97 1.05 1.17 1.33 1.26 1.20 1.26 1.36 1.41 1.35 1.30 1.22 1.12 1.14 1.32 1.53 2.04 2.07 2.18 2.24 1.75 1.45
0.76 0.68 0.63 0.60 0.56 0.43 0.36 0.33 0.35 0.42 0.46 0.43 0.40 0.45 0.53 0.56 0.55 0.63 0.73 0.88 0.94 1.04 1.07 1.24 1.26 1.19 1.18 1.19 1.14 1.18 1.37 1.46 1.37 1.11 1.02 1.21 1.43 1.71 1.74 1.82 1.79 1.65 1.50
0.71 0.58 0.52 0.52 0.49 0.45 0.36 0.30 0.31 0.36 0.43 0.40 0.43 0.49 0.49 0.43 0.45 0.57 0.74 0.94 1.08 1.12 1.21 1.41 1.39 1.35 1.25 1.19 1.09 1.12 1.39 1.57 1.52 1.26 1.01 1.07 1.23 1.37 1.59 1.57 1.47 1.40 1.47

GEFSMA_prec_meanprecacc_216.txt.gz
Total_Precipitation_Accumulation
2.13 2.13 2.12 2.15 2.06 2.15 2.18 2.11 1.85 1.67 1.53 1.35 1.18 1.21 1.32 1.31 1.41 1.51 1.78 1.86 1.72 1.88 2.27 2.59 2.62 2.63 2.60 2.51 2.39 2.32 2.25 2.21 2.06 1.84 1.56 1.38 1.31 1.19 1.16 1.15 1.18 1.16 1.11
2.50 2.50 2.60 2.58 2.34 2.33 2.41 2.47 2.32 2.09 1.81 1.60 1.43 1.38 1.38 1.37 1.47 1.63 1.83 1.97 1.90 1.82 2.15 2.59 2.80 2.93 2.93 2.92 2.80 2.55 2.36 2.26 2.20 2.05 1.86 1.63 1.47 1.35 1.28 1.23 1.20 1.17 1.13
2.80 2.79 2.95 2.93 2.62 2.53 2.64 2.74 2.71 2.56 2.17 1.88 1.76 1.72 1.64 1.65 1.63 1.71 1.89 2.01 2.00 1.95 2.07 2.21 2.41 2.60 2.76 2.90 2.96 2.82 2.61 2.38 2.24 2.15 2.11 2.00 1.80 1.59 1.44 1.37 1.34 1.27 1.18
2.86 2.95 2.89 2.74 2.66 2.71 2.94 3.14 3.08 2.99 2.72 2.45 2.24 1.98 1.79 1.77 1.72 1.86 1.92 1.97 2.24 2.18 2.11 1.93 2.00 2.20 2.47 2.80 3.06 3.09 2.98 2.77 2.48 2.29 2.23 2.15 1.98 1.75 1.55 1.45 1.43 1.36 1.29
2.98 3.13 3.15 3.10 3.04 3.05 3.12 3.04 3.19 3.03 3.06 2.87 2.41 2.16 1.94 1.87 1.92 1.97 2.01 2.02 2.14 2.26 2.22 2.01 1.93 2.03 2.17 2.49 2.76 3.04 3.16 3.08 2.83 2.57 2.41 2.30 2.14 1.96 1.78 1.65 1.55 1.47 1.38
3.28 3.39 3.36 3.42 3.48 3.53 3.36 3.27 3.26 3.07 2.91 2.82 2.48 2.27 2.11 1.96 1.92 1.90 1.84 1.87 1.97 1.94 2.02 2.02 2.06 1.94 2.01 2.14 2.37 2.76 3.16 3.28 3.22 2.99 2.79 2.65 2.40 2.13 1.92 1.81 1.71 1.64 1.55
3.86 3.87 3.90 3.89 3.77 3.68 3.52 3.33 3.19 3.07 2.85 2.65 2.58 2.28 1.93 1.69 1.62 1.58 1.63 1.70 1.70 1.70 1.79 1.96 2.06 2.02 1.89 1.85 2.00 2.45 3.02 3.32 3.33 3.22 3.07 2.96 2.66 2.30 2.07 1.92 1.81 1.71 1.65
4.55 4.34 4.29 4.10 3.80 3.61 3.47 3.28 3.13 2.97 2.71 2.55 2.50 2.48 2.09 1.78 1.49 1.32 1.41 1.43 1.49 1.63 1.72 1.69 1.73 1.74 1.70 1.71 1.66 1.91 2.19 2.47 2.75 2.98 3.08 3.00 2.81 2.55 2.30 2.16 2.10 2.02 1.92
4.62 4.32 4.03 3.87 3.69 3.52 3.35 3.27 3.15 3.02 2.77 2.58 2.47 2.60 2.47 2.15 1.76 1.56 1.42 1.43 1.51 1.57 1.57 1.54 1.50 1.49 1.54 1.62 1.64 1.70 1.84 2.00 2.24 2.51 2.73 2.78 2.71 2.57 2.43 2.35 2.34 2.35 2.34
4.27 3.85 3.61 3.61 3.45 3.24 3.05 2.84 2.71 2.67 2.60 2.50 2.44 2.33 2.30 2.23 2.07 1.86 1.65 1.65 1.67 1.64 1.58 1.54 1.59 1.65 1.65 1.72 1.71 1.58 1.54 1.58 1.80 2.01 2.25 2.38 2.37 2.36 2.38 2.46 2.58 2.70 2.71
3.69 3.42 3.22 3.23 3.13 2.88 2.66 2.41 2.22 2.14 2.14 2.21 2.23 2.20 2.14 2.08 1.91 1.81 1.73 1.65 1.62 1.61 1.54 1.51 1.56 1.64 1.64 1.58 1.54 1.52 1.52 1.48 1.59 1.73 1.87 2.09 2.22 2.27 2.34 2.45 2.55 2.64 2.73
3.11 2.81 2.54 2.43 2.31 2.16 2.05 1.95 1.84 1.78 1.78 1.89 1.96 1.91 1.90 1.91 1.87 1.86 1.80 1.66 1.64 1.71 1.58 1.46 1.40 1.37 1.38 1.43 1.45 1.59 1.51 1.49 1.54 1.58 1.55 1.58 1.75 1.95 2.13 2.25 2.31 2.43 2.60
2.47 2.19 1.99 1.87 1.81 1.76 1.71 1.69 1.65 1.59 1.50 1.54 1.57 1.61 1.62 1.59 1.63 1.75 1.88 1.87 1.78 1.66 1.57 1.49 1.35 1.30 1.29 1.31 1.46 1.58 1.44 1.40 1.46 1.47 1.38 1.33 1.37 1.50 1.59 1.73 1.90 2.05 2.22
1.94 1.83 1.68 1.57 1.52 1.55 1.55 1.57 1.51 1.40 1.31 1.28 1.24 1.27 1.32 1.32 1.45 1.64 1.76 1.93 1.96 1.75 1.50 1.42 1.34 1.26 1.27 1.29 1.47 1.50 1.32 1.26 1.25 1.31 1.31 1.24 1.20 1.22 1.25 1.31 1.40 1.48 1.63
1.49 1.47 1.44 1.40 1.32 1.26 1.22 1.18 1.15 1.15 1.17 1.17 1.11 1.09 1.11 1.14 1.25 1.39 1.51 1.72 1.91 1.84 1.57 1.34 1.32 1.30 1.24 1.32 1.54 1.31 1.21 1.22 1.11 1.04 1.06 1.05 1.07 1.09 1.09 1.04 1.06 1.11 1.18
1.15 1.16 1.13 1.10 1.11 1.12 1.04 0.96 0.92 0.95 0.98 1.03 1.05 1.00 0.98 0.99 1.03 1.09 1.19 1.34 1.55 1.69 1.61 1.32 1.21 1.14 1.12 1.11 1.35 1.19 1.21 1.22 1.03 0.90 0.85 0.86 0.89 0.94 0.94 0.90 0.91 0.94 1.00
0.98 0.94 0.94 0.92 0.90 0.89 0.88 0.90 0.87 0.88 0.94 0.95 0.95 0.93 0.91 0.91 0.97 0.96 1.01 1.12 1.26 1.42 1.56 1.44 1.24 1.12 1.08 1.12 1.18 1.09 1.06 1.00 0.93 0.91 0.79 0.74 0.76 0.82 0.82 0.80 0.84 0.86 0.89
0.87 0.85 0.86 0.82 0.75 0.72 0.77 0.83 0.86 0.85 0.94 0.94 0.92 0.92 0.88 0.88 0.93 0.93 0.95 1.01 1.14 1.31 1.46 1.52 1.35 1.21 1.11 1.06 1.08 1.04 0.88 0.83 0.85 0.96 0.83 0.74 0.69 0.69 0.77 0.73 0.72 0.77 0.83
0.83 0.81 0.75 0.73 0.72 0.68 0.69 0.70 0.72 0.74 0.80 0.86 0.87 0.92 0.93 0.93 0.91 0.90 0.93 1.00 1.12 1.25 1.40 1.45 1.37 1.27 1.21 1.13 1.16 1.08 0.96 1.03 0.90 0.91 0.85 0.78 0.72 0.70 0.92 0.94 0.72 0.68 0.73
0.74 0.72 0.65 0.63 0.69 0.68 0.62 0.59 0.60 0.65 0.70 0.71 0.72 0.85 0.91 0.92 0.92 0.98 1.00 1.04 1.11 1.27 1.36 1.40 1.33 1.25 1.21 1.21 1.26 1.27 1.21 1.16 1.06 0.85 0.87 0.83 0.80 0.82 1.14 1.63 1.11 0.79 0.75
0.71 0.71 0.65 0.60 0.63 0.63 0.57 0.57 0.57 0.57 0.61 0.61 0.63 0.71 0.78 0.80 0.81 0.87 0.89 0.98 1.11 1.26 1.33 1.38 1.33 1.27 1.20 1.28 1.32 1.27 1.22 1.23 1.11 0.98 0.96 0.89 1.04 1.33 1.85 2.46 1.97 1.32 1.06
0.79 0.75 0.69 0.64 0.62 0.59 0.60 0.54 0.52 0.53 0.57 0.63 0.70 0.72 0.68 0.68 0.66 0.64 0.71 0.81 0.97 1.17 1.33 1.39 1.35 1.32 1.25 1.28 1.37 1.36 1.33 1.35 1.34 1.08 0.99 1.00 1.23 1.96 2.63 2.96 2.50 1.68 1.33
0.90 0.80 0.70 0.66 0.63 0.56 0.51 0.42 0.41 0.46 0.58 0.68 0.76 0.74 0.64 0.61 0.70 0.71 0.71 0.74 0.85 0.99 1.20 1.41 1.46 1.34 1.30 1.31 1.44 1.50 1.43 1.42 1.40 1.19 1.18 1.24 1.46 2.23 2.51 2.69 2.49 1.75 1.44
0.84 0.78 0.70 0.64 0.60 0.46 0.39 0.37 0.40 0.42 0.50 0.54 0.58 0.66 0.76 0.78 0.71 0.72 0.71 0.81 0.90 1.00 1.09 1.21 1.38 1.31 1.24 1.30 1.39 1.43 1.38 1.33 1.25 1.15 1.18 1.36 1.58 2.10 2.12 2.23 2.28 1.79 1.49
0.79 0.72 0.66 0.63 0.59 0.47 0.40 0.38 0.39 0.44 0.48 0.45 0.42 0.48 0.55 0.59 0.59 0.67 0.77 0.92 0.98 1.09 1.11 1.27 1.29 1.23 1.22 1.23 1.17 1.21 1.40 1.50 1.40 1.15 1.06 1.24 1.47 1.76 1.80 1.88 1.84 1.70 1.54
0.74 0.62 0.55 0.55 0.52 0.50 0.42 0.35 0.35 0.38 0.45 0.43 0.45 0.52 0.52 0.46 0.49 0.62 0.80 0.99 1.13 1.18 1.27 1.45 1.43 1.40 1.29 1.22 1.12 1.15 1.42 1.61 1.56 1.31 1.05 1.12 1.27 1.42 1.64 1.62 1.51 1.43 1.50

GEFSMA_prec_meanprecacc_222.txt.gz
Total_Precipitation_Accumulation
2.19 2.18 2.16 2.19 2.09 2.18 2.21 2.15 1.90 1.70 1.58 1.42 1.25 1.29 1.40 1.38 1.47 1.56 1.82 1.90 1.76 1.93 2.32 2.65 2.68 2.70 2.68 2.59 2.49 2.43 2.33 2.28 2.14 1.93 1.65 1.47 1.41 1.29 1.25 1.24 1.27 1.25 1.21
2.55 2.55 2.65 2.64 2.39 2.37 2.45 2.51 2.37 2.15 1.88 1.68 1.49 1.46 1.47 1.45 1.54 1.69 1.88 2.02 1.94 1.86 2.21 2.65 2.86 2.99 3.00 3.00 2.86 2.62 2.42 2.33 2.28 2.13 1.96 1.72 1.56 1.44 1.37 1.31 1.28 1.24 1.21
2.85 2.84 3.00 2.99 2.66 2.58 2.70 2.80 2.76 2.63 2.24 1.96 1.84 1.80 1.75 1.76 1.72 1.78 1.96 2.08 2.04 1.99 2.13 2.27 2.45 2.66 2.81 2.95 3.01 2.87 2.67 2.45 2.30 2.22 2.19 2.09 1.88 1.65 1.50 1.44 1.41 1.34 1.25
2.90 3.00 2.94 2.80 2.73 2.78 3.01 3.21 3.15 3.07 2.82 2.54 2.33 2.06 1.88 1.87 1.81 1.95 2.02 2.07 2.30 2.22 2.15 1.96 2.03 2.24 2.50 2.83 3.10 3.14 3.04 2.84 2.55 2.35 2.29 2.20 2.03 1.79 1.59 1.50 1.48 1.42 1.35
3.04 3.19 3.21 3.17 3.10 3.13 3.19 3.10 3.26 3.12 3.16 2.97 2.52 2.27 2.06 1.97 2.02 2.06 2.10 2.08 2.19 2.30 2.27 2.05 1.96 2.05 2.19 2.52 2.79 3.08 3.19 3.12 2.88 2.62 2.46 2.34 2.19 2.01 1.82 1.69 1.59 1.51 1.43
3.34 3.46 3.43 3.49 3.55 3.61 3.44 3.34 3.36 3.16 3.01 2.93 2.56 2.36 2.21 2.07 2.03 1.99 1.92 1.94 2.03 1.99 2.06 2.06 2.09 1.96 2.02 2.16 2.39 2.78 3.18 3.30 3.25 3.03 2.83 2.69 2.44 2.18 1.97 1.86 1.76 1.68 1.60
3.94 3.96 3.99 3.98 3.85 3.76 3.60 3.42 3.32 3.20 2.97 2.76 2.68 2.37 2.02 1.77 1.69 1.65 1.69 1.76 1.75 1.75 1.84 2.00 2.10 2.07 1.93 1.87 2.02 2.47 3.04 3.34 3.36 3.24 3.10 3.00 2.70 2.35 2.11 1.96 1.86 1.76 1.70
4.64 4.43 4.39 4.19 3.90 3.72 3.58 3.39 3.25 3.09 2.82 2.67 2.61 2.59 2.19 1.86 1.56 1.37 1.46 1.46 1.51 1.66 1.75 1.72 1.77 1.79 1.74 1.75 1.68 1.93 2.21 2.49 2.78 3.01 3.12 3.04 2.85 2.58 2.33 2.20 2.13 2.05 1.96
4.70 4.42 4.14 4.00 3.84 3.67 3.50 3.40 3.26 3.14 2.89 2.71 2.59 2.71 2.56 2.23 1.82 1.61 1.46 1.46 1.53 1.59 1.59 1.56 1.53 1.53 1.57 1.66 1.68 1.73 1.87 2.02 2.26 2.54 2.77 2.82 2.76 2.61 2.47 2.40 2.38 2.39 2.38
4.35 3.93 3.70 3.71 3.57 3.36 3.16 2.94 2.81 2.77 2.70 2.58 2.52 2.42 2.39 2.32 2.14 1.91 1.71 1.70 1.71 1.67 1.61 1.57 1.62 1.67 1.68 1.76 1.76 1.62 1.58 1.61 1.83 2.03 2.29 2.42 2.40 2.40 2.42 2.51 2.63 2.74 2.75
3.80 3.51 3.30 3.32 3.22 2.97 2.74 2.48 2.29 2.20 2.20 2.27 2.29 2.27 2.22 2.17 2.00 1.88 1.78 1.71 1.68 1.66 1.59 1.55 1.60 1.67 1.68 1.63 1.59 1.56 1.56 1.52 1.62 1.76 1.91 2.12 2.26 2.31 2.39 2.51 2.62 2.71 2.78
3.20 2.87 2.59 2.49 2.38 2.23 2.11 2.01 1.90 1.85 1.85 1.95 2.01 1.96 1.96 1.98 1.95 1.93 1.86 1.71 1.69 1.76 1.64 1.51 1.44 1.41 1.42 1.47 1.49 1.63 1.55 1.53 1.57 1.63 1.59 1.61 1.77 1.97 2.16 2.30 2.36 2.50 2.67
2.54 2.25 2.04 1.92 1.86 1.81 1.76 1.75 1.72 1.65 1.56 1.60 1.63 1.66 1.67 1.65 1.69 1.83 1.96 1.93 1.83 1.70 1.62 1.54 1.39 1.35 1.33 1.35 1.50 1.62 1.48 1.43 1.49 1.49 1.39 1.34 1.39 1.52 1.62 1.77 1.95 2.10 2.28
1.99 1.88 1.74 1.62 1.58 1.61 1.60 1.63 1.57 1.45 1.36 1.34 1.29 1.33 1.39 1.38 1.51 1.70 1.84 2.00 2.02 1.80 1.56 1.48 1.39 1.30 1.31 1.34 1.51 1.53 1.35 1.29 1.28 1.33 1.32 1.27 1.23 1.24 1.27 1.34 1.44 1.52 1.67
1.55 1.52 1.49 1.45 1.37 1.33 1.28 1.25 1.22 1.21 1.23 1.22 1.17 1.15 1.18 1.20 1.31 1.45 1.60 1.81 2.00 1.91 1.64 1.42 1.40 1.36 1.29 1.37 1.58 1.34 1.24 1.26 1.14 1.07 1.07 1.07 1.09 1.11 1.10 1.06 1.08 1.13 1.21
1.19 1.21 1.17 1.14 1.17 1.18 1.10 1.03 1.01 1.02 1.04 1.09 1.12 1.06 1.05 1.06 1.10 1.16 1.28 1.44 1.66 1.81 1.70 1.39 1.30 1.22 1.18 1.15 1.39 1.22 1.24 1.24 1.04 0.91 0.86 0.87 0.90 0.95 0.95 0.91 0.92 0.96 1.01
1.02 0.99 0.98 0.97 0.95 0.95 0.94 0.96 0.94 0.95 1.01 1.03 1.02 1.01 0.99 1.00 1.03 1.02 1.09 1.21 1.36 1.53 1.67 1.52 1.32 1.20 1.15 1.17 1.22 1.13 1.09 1.02 0.95 0.93 0.81 0.75 0.77 0.83 0.83 0.81 0.84 0.87 0.90
0.91 0.90 0.91 0.88 0.79 0.77 0.83 0.90 0.92 0.90 0.98 0.99 0.97 1.00 0.98 0.97 1.00 1.00 1.04 1.10 1.23 1.41 1.56 1.62 1.44 1.29 1.19 1.13 1.13 1.09 0.92 0.85 0.88 0.99 0.85 0.75 0.70 0.70 0.78 0.74 0.73 0.77 0.84
0.88 0.86 0.81 0.79 0.77 0.73 0.75 0.75 0.77 0.78 0.86 0.93 0.95 1.00 1.00 1.02 1.00 0.98 1.02 1.07 1.19 1.32 1.50 1.56 1.49 1.38 1.29 1.20 1.23 1.14 1.02 1.08 0.93 0.94 0.87 0.80 0.73 0.72 0.93 0.95 0.72 0.69 0.74
0.80 0.78 0.72 0.71 0.77 0.76 0.68 0.63 0.65 0.70 0.77 0.80 0.81 0.92 0.98 1.00 0.99 1.04 1.06 1.10 1.18 1.36 1.48 1.52 1.45 1.35 1.31 1.29 1.33 1.33 1.27 1.23 1.11 0.89 0.90 0.84 0.81 0.83 1.15 1.64 1.12 0.80 0.75
0.76 0.76 0.70 0.66 0.71 0.69 0.62 0.62 0.63 0.63 0.68 0.68 0.70 0.77 0.83 0.84 0.84 0.90 0.93 1.03 1.16 1.32 1.40 1.46 1.42 1.37 1.30 1.37 1.39 1.32 1.28 1.30 1.18 1.05 1.03 0.94 1.07 1.35 1.86 2.47 1.97 1.32 1.07
0.85 0.80 0.74 0.70 0.69 0.64 0.63 0.57 0.56 0.58 0.64 0.70 0.76 0.76 0.71 0.71 0.69 0.66 0.73 0.83 1.00 1.20 1.37 1.44 1.41 1.39 1.33 1.36 1.44 1.42 1.39 1.42 1.40 1.15 1.09 1.08 1.30 2.02 2.67 2.98 2.51 1.68 1.34
0.95 0.85 0.75 0.73 0.70 0.62 0.54 0.45 0.44 0.50 0.64 0.74 0.81 0.79 0.67 0.64 0.73 0.73 0.73 0.76 0.88 1.02 1.23 1.45 1.50 1.40 1.36 1.39 1.51 1.56 1.49 1.48 1.46 1.26 1.27 1.32 1.54 2.34 2.59 2.72 2.52 1.77 1.45
0.89 0.84 0.77 0.71 0.67 0.50 0.44 0.41 0.43 0.46 0.55 0.60 0.64 0.72 0.80 0.82 0.74 0.74 0.73 0.84 0.94 1.05 1.13 1.25 1.43 1.35 1.29 1.36 1.45 1.49 1.44 1.40 1.32 1.23 1.27 1.44 1.66 2.18 2.19 2.29 2.33 1.83 1.52
0.85 0.78 0.71 0.68 0.63 0.51 0.45 0.43 0.43 0.47 0.52 0.50 0.47 0.53 0.58 0.62 0.62 0.69 0.80 0.96 1.01 1.12 1.14 1.29 1.32 1.27 1.26 1.27 1.22 1.26 1.46 1.56 1.46 1.21 1.13 1.32 1.55 1.84 1.89 1.97 1.92 1.76 1.59
0.79 0.66 0.59 0.59 0.56 0.53 0.47 0.40 0.38 0.42 0.49 0.46 0.49 0.57 0.56 0.48 0.51 0.65 0.84 1.03 1.18 1.21 1.31 1.48 1.46 1.43 1.33 1.26 1.16 1.20 1.48 1.66 1.61 1.37 1.12 1.19 1.35 1.51 1.73 1.72 1.59 1.50 1.57

GEFSMA_prec_meanprecacc_228.txt.gz
Total_Precipitation_Accumulation
2.24 2.22 2.19 2.22 2.11 2.21 2.25 2.20 1.95 1.75 1.64 1.48 1.30 1.33 1.45 1.44 1.51 1.60 1.86 1.94 1.80 1.99 2.40 2.72 2.74 2.75 2.73 2.65 2.55 2.50 2.39 2.34 2.20 2.00 1.71 1.54 1.49 1.37 1.33 1.32 1.35 1.34 1.28
2.62 2.60 2.68 2.66 2.41 2.39 2.47 2.54 2.41 2.20 1.93 1.75 1.55 1.51 1.55 1.53 1.60 1.74 1.93 2.07 1.99 1.93 2.28 2.72 2.94 3.07 3.07 3.06 2.92 2.67 2.47 2.37 2.32 2.19 2.02 1.78 1.63 1.50 1.45 1.40 1.36 1.32 1.27
2.91 2.90 3.04 3.02 2.69 2.60 2.73 2.82 2.79 2.66 2.27 1.99 1.89 1.85 1.81 1.83 1.80 1.87 2.06 2.18 2.15 2.10 2.25 2.38 2.57 2.76 2.90 3.02 3.07 2.92 2.71 2.48 2.34 2.26 2.25 2.15 1.94 1.71 1.57 1.50 1.48 1.40 1.31
2.99 3.07 3.01 2.85 2.77 2.82 3.05 3.25 3.18 3.10 2.85 2.57 2.37 2.11 1.93 1.91 1.87 2.02 2.11 2.19 2.46 2.39 2.32 2.11 2.16 2.34 2.58 2.90 3.15 3.19 3.09 2.88 2.59 2.40 2.34 2.26 2.09 1.86 1.65 1.55 1.53 1.47 1.40
3.14 3.29 3.31 3.24 3.16 3.17 3.23 3.13 3.29 3.15 3.20 3.01 2.56 2.31 2.10 2.01 2.06 2.12 2.19 2.19 2.33 2.47 2.44 2.20 2.07 2.14 2.26 2.58 2.84 3.12 3.24 3.17 2.93 2.68 2.51 2.38 2.23 2.05 1.87 1.74 1.63 1.55 1.47
3.42 3.55 3.51 3.55 3.62 3.66 3.48 3.38 3.40 3.21 3.07 2.98 2.62 2.42 2.26 2.11 2.08 2.08 2.03 2.06 2.14 2.10 2.18 2.18 2.19 2.03 2.09 2.22 2.45 2.83 3.23 3.36 3.31 3.09 2.89 2.74 2.48 2.21 2.01 1.90 1.79 1.71 1.64
4.01 4.03 4.06 4.04 3.90 3.81 3.66 3.48 3.38 3.27 3.04 2.84 2.77 2.46 2.09 1.83 1.75 1.71 1.76 1.84 1.84 1.83 1.93 2.10 2.20 2.13 1.98 1.93 2.07 2.52 3.10 3.40 3.42 3.30 3.15 3.05 2.75 2.39 2.15 2.00 1.90 1.80 1.73
4.71 4.50 4.46 4.26 3.97 3.78 3.64 3.45 3.32 3.16 2.88 2.73 2.68 2.64 2.23 1.89 1.58 1.40 1.49 1.50 1.55 1.71 1.81 1.78 1.83 1.84 1.77 1.78 1.71 1.97 2.26 2.54 2.83 3.06 3.18 3.10 2.90 2.64 2.39 2.25 2.18 2.10 2.00
4.78 4.51 4.22 4.09 3.93 3.75 3.58 3.47 3.35 3.22 2.96 2.77 2.64 2.76 2.60 2.25 1.84 1.63 1.48 1.48 1.55 1.62 1.63 1.60 1.58 1.57 1.60 1.68 1.70 1.75 1.90 2.05 2.31 2.60 2.84 2.88 2.81 2.67 2.52 2.45 2.43 2.44 2.42
4.42 4.01 3.79 3.81 3.67 3.46 3.25 3.01 2.88 2.84 2.77 2.64 2.57 2.46 2.43 2.35 2.17 1.93 1.73 1.72 1.75 1.71 1.64 1.60 1.65 1.71 1.72 1.79 1.77 1.63 1.60 1.64 1.86 2.08 2.35 2.48 2.45 2.44 2.46 2.56 2.67 2.78 2.79
3.85 3.57 3.38 3.43 3.33 3.10 2.88 2.62 2.39 2.29 2.26 2.32 2.34 2.31 2.25 2.19 2.03 1.91 1.81 1.73 1.71 1.69 1.63 1.60 1.64 1.71 1.71 1.66 1.62 1.58 1.58 1.54 1.65 1.80 1.95 2.17 2.30 2.36 2.43 2.56 2.67 2.76 2.84
3.24 2.91 2.65 2.56 2.47 2.31 2.20 2.14 2.06 1.99 1.95 2.02 2.06 1.99 1.98 2.00 1.97 1.96 1.89 1.73 1.72 1.79 1.68 1.55 1.48 1.45 1.47 1.52 1.52 1.65 1.58 1.55 1.60 1.66 1.63 1.64 1.80 2.01 2.20 2.33 2.39 2.54 2.72
2.58 2.29 2.07 1.95 1.90 1.86 1.82 1.81 1.79 1.74 1.65 1.66 1.68 1.69 1.70 1.68 1.72 1.86 1.99 1.96 1.86 1.73 1.67 1.58 1.42 1.38 1.36 1.39 1.53 1.65 1.51 1.46 1.51 1.52 1.42 1.36 1.41 1.54 1.65 1.80 1.98 2.14 2.33
2.04 1.92 1.77 1.65 1.60 1.64 1.63 1.66 1.60 1.50 1.42 1.40 1.34 1.37 1.44 1.42 1.55 1.74 1.89 2.07 2.08 1.83 1.60 1.51 1.42 1.34 1.35 1.37 1.54 1.56 1.38 1.32 1.30 1.34 1.34 1.28 1.24 1.25 1.28 1.36 1.46 1.55 1.72
1.58 1.55 1.52 1.48 1.39 1.35 1.30 1.27 1.25 1.24 1.27 1.28 1.22 1.20 1.22 1.25 1.36 1.51 1.66 1.91 2.10 1.99 1.70 1.46 1.45 1.41 1.33 1.40 1.61 1.37 1.27 1.29 1.17 1.09 1.10 1.09 1.10 1.12 1.12 1.08 1.10 1.16 1.24
1.22 1.24 1.19 1.17 1.20 1.20 1.12 1.06 1.04 1.06 1.08 1.13 1.16 1.10 1.09 1.11 1.16 1.23 1.34 1.51 1.74 1.88 1.75 1.43 1.36 1.29 1.23 1.19 1.43 1.26 1.27 1.28 1.08 0.94 0.89 0.90 0.93 0.98 0.97 0.93 0.94 0.98 1.03
1.05 1.02 1.01 0.99 0.98 0.98 0.97 1.00 0.98 0.99 1.05 1.07 1.05 1.05 1.04 1.06 1.10 1.08 1.15 1.26 1.41 1.59 1.72 1.56 1.38 1.27 1.23 1.25 1.27 1.17 1.12 1.05 0.97 0.96 0.84 0.79 0.79 0.87 0.87 0.84 0.87 0.89 0.92
0.93 0.92 0.94 0.90 0.82 0.81 0.88 0.95 0.97 0.95 1.02 1.02 1.01 1.04 1.02 1.02 1.04 1.04 1.09 1.15 1.28 1.46 1.62 1.67 1.50 1.35 1.26 1.22 1.21 1.15 0.96 0.89 0.91 1.02 0.88 0.78 0.73 0.72 0.80 0.77 0.76 0.80 0.87
0.90 0.88 0.85 0.83 0.81 0.77 0.80 0.81 0.82 0.83 0.89 0.95 0.97 1.02 1.03 1.05 1.02 1.01 1.05 1.11 1.23 1.36 1.54 1.61 1.52 1.42 1.35 1.26 1.30 1.19 1.06 1.13 0.97 0.97 0.90 0.82 0.75 0.74 0.95 0.97 0.75 0.71 0.76
0.82 0.80 0.75 0.74 0.80 0.79 0.71 0.66 0.68 0.72 0.80 0.82 0.83 0.94 1.00 1.02 1.00 1.05 1.08 1.13 1.21 1.38 1.50 1.55 1.47 1.37 1.33 1.33 1.38 1.37 1.30 1.26 1.14 0.91 0.92 0.87 0.83 0.85 1.16 1.65 1.13 0.81 0.77
0.77 0.78 0.72 0.68 0.73 0.72 0.65 0.65 0.65 0.66 0.71 0.71 0.73 0.80 0.85 0.86 0.85 0.91 0.93 1.03 1.17 1.33 1.42 1.48 1.44 1.38 1.31 1.41 1.43 1.36 1.31 1.32 1.20 1.06 1.05 0.97 1.09 1.37 1.88 2.49 1.98 1.33 1.08
0.85 0.81 0.76 0.71 0.71 0.65 0.65 0.60 0.58 0.61 0.67 0.73 0.79 0.79 0.74 0.73 0.70 0.67 0.73 0.84 1.01 1.22 1.39 1.46 1.42 1.40 1.35 1.38 1.48 1.45 1.42 1.45 1.42 1.17 1.11 1.11 1.32 2.05 2.69 2.99 2.53 1.70 1.35
0.96 0.86 0.77 0.74 0.71 0.64 0.56 0.47 0.46 0.52 0.67 0.77 0.84 0.81 0.70 0.66 0.75 0.75 0.74 0.77 0.89 1.03 1.25 1.47 1.52 1.41 1.38 1.42 1.55 1.60 1.53 1.52 1.49 1.28 1.30 1.34 1.56 2.36 2.61 2.74 2.54 1.78 1.47
0.91 0.85 0.78 0.73 0.68 0.52 0.45 0.43 0.45 0.48 0.58 0.63 0.67 0.73 0.82 0.84 0.76 0.76 0.74 0.85 0.95 1.06 1.14 1.27 1.45 1.37 1.31 1.38 1.49 1.53 1.48 1.43 1.36 1.26 1.30 1.47 1.68 2.20 2.20 2.31 2.35 1.84 1.53
0.87 0.79 0.72 0.69 0.64 0.52 0.47 0.45 0.46 0.51 0.57 0.54 0.51 0.55 0.61 0.64 0.65 0.72 0.82 0.97 1.02 1.13 1.15 1.31 1.33 1.27 1.27 1.30 1.25 1.29 1.50 1.61 1.50 1.25 1.17 1.35 1.57 1.87 1.91 2.00 1.95 1.78 1.60
0.81 0.67 0.60 0.60 0.57 0.55 0.49 0.42 0.41 0.45 0.53 0.51 0.53 0.60 0.59 0.51 0.55 0.68 0.86 1.05 1.19 1.22 1.31 1.49 1.47 1.44 1.35 1.30 1.20 1.22 1.51 1.70 1.65 1.40 1.15 1.21 1.38 1.55 1.77 1.76 1.62 1.53 1.59

GEFSMA_prec_meanprecacc_234.txt.gz
Total_Precipitation_Accumulation
2.28 2.25 2.22 2.24 2.14 2.24 2.29 2.24 1.99 1.80 1.69 1.54 1.36 1.38 1.49 1.47 1.54 1.63 1.88 1.96 1.86 2.05 2.47 2.82 2.84 2.84 2.82 2.73 2.65 2.59 2.47 2.43 2.30 2.09 1.79 1.61 1.56 1.44 1.39 1.38 1.42 1.41 1.35
2.64 2.62 2.72 2.70 2.44 2.43 2.52 2.60 2.47 2.25 1.97 1.79 1.60 1.57 1.60 1.57 1.63 1.76 1.94 2.08 2.02 1.98 2.34 2.81 3.05 3.19 3.19 3.18 3.02 2.75 2.56 2.46 2.41 2.29 2.11 1.87 1.73 1.62 1.56 1.49 1.45 1.39 1.34
2.94 2.94 3.09 3.08 2.75 2.66 2.79 2.87 2.83 2.70 2.30 2.01 1.90 1.88 1.85 1.88 1.82 1.90 2.08 2.21 2.18 2.13 2.31 2.47 2.69 2.90 3.05 3.18 3.21 3.05 2.83 2.58 2.42 2.34 2.33 2.24 2.04 1.84 1.69 1.60 1.56 1.47 1.37
3.01 3.10 3.03 2.88 2.82 2.88 3.12 3.31 3.24 3.14 2.87 2.59 2.38 2.12 1.94 1.93 1.89 2.04 2.14 2.22 2.49 2.43 2.35 2.18 2.27 2.50 2.76 3.07 3.32 3.35 3.23 3.00 2.69 2.49 2.42 2.34 2.17 1.94 1.75 1.62 1.60 1.54 1.47
3.15 3.30 3.33 3.26 3.19 3.21 3.29 3.19 3.34 3.19 3.23 3.02 2.57 2.33 2.11 2.01 2.06 2.14 2.21 2.22 2.35 2.49 2.47 2.24 2.15 2.28 2.43 2.76 3.01 3.30 3.41 3.30 3.03 2.76 2.59 2.47 2.31 2.12 1.94 1.81 1.69 1.62 1.54
3.44 3.57 3.53 3.58 3.65 3.70 3.53 3.44 3.46 3.26 3.10 3.01 2.64 2.44 2.28 2.12 2.10 2.09 2.04 2.08 2.18 2.14 2.22 2.22 2.24 2.10 2.20 2.36 2.60 3.00 3.41 3.51 3.41 3.17 2.97 2.82 2.55 2.27 2.05 1.95 1.85 1.77 1.71
4.05 4.06 4.09 4.07 3.94 3.85 3.70 3.53 3.42 3.31 3.07 2.87 2.81 2.49 2.12 1.85 1.77 1.73 1.78 1.86 1.86 1.86 1.97 2.16 2.25 2.18 2.03 2.01 2.18 2.63 3.21 3.51 3.52 3.39 3.23 3.13 2.83 2.46 2.20 2.03 1.93 1.84 1.78
4.75 4.54 4.50 4.30 4.01 3.82 3.68 3.49 3.35 3.19 2.92 2.77 2.71 2.68 2.25 1.91 1.59 1.41 1.50 1.51 1.57 1.73 1.83 1.81 1.86 1.87 1.81 1.83 1.77 2.05 2.35 2.63 2.93 3.16 3.27 3.18 2.97 2.71 2.46 2.31 2.22 2.14 2.04
4.80 4.56 4.29 4.16 3.98 3.81 3.63 3.52 3.39 3.26 3.00 2.80 2.67 2.80 2.63 2.27 1.85 1.64 1.48 1.48 1.56 1.63 1.64 1.62 1.60 1.59 1.63 1.71 1.73 1.81 1.98 2.12 2.38 2.67 2.92 2.96 2.88 2.73 2.60 2.53 2.50 2.50 2.47
4.45 4.05 3.84 3.86 3.73 3.52 3.31 3.06 2.94 2.90 2.81 2.69 2.61 2.49 2.46 2.38 2.19 1.95 1.73 1.73 1.76 1.72 1.65 1.62 1.68 1.74 1.74 1.81 1.80 1.68 1.67 1.72 1.93 2.14 2.41 2.54 2.52 2.51 2.53 2.65 2.76 2.86 2.86
3.88 3.61 3.43 3.50 3.39 3.15 2.93 2.67 2.44 2.33 2.31 2.37 2.40 2.36 2.29 2.23 2.06 1.93 1.82 1.74 1.73 1.70 1.65 1.61 1.65 1.73 1.74 1.69 1.65 1.61 1.63 1.61 1.71 1.86 2.01 2.23 2.36 2.43 2.50 2.62 2.75 2.84 2.92
3.28 2.96 2.69 2.60 2.52 2.37 2.26 2.19 2.11 2.05 2.02 2.09 2.13 2.07 2.05 2.05 2.01 1.99 1.91 1.74 1.73 1.80 1.70 1.57 1.49 1.47 1.50 1.55 1.56 1.69 1.61 1.59 1.65 1.71 1.68 1.69 1.85 2.06 2.25 2.39 2.46 2.61 2.79
2.62 2.31 2.10 1.98 1.93 1.91 1.87 1.86 1.85 1.80 1.75 1.78 1.79 1.79 1.78 1.73 1.76 1.89 2.02 1.98 1.87 1.75 1.69 1.60 1.44 1.40 1.39 1.42 1.57 1.70 1.56 1.49 1.54 1.56 1.45 1.39 1.44 1.58 1.69 1.85 2.03 2.20 2.40
2.07 1.95 1.80 1.67 1.62 1.66 1.67 1.71 1.64 1.54 1.48 1.48 1.45 1.48 1.52 1.49 1.60 1.78 1.92 2.11 2.10 1.86 1.63 1.54 1.45 1.38 1.39 1.42 1.58 1.61 1.43 1.35 1.32 1.37 1.37 1.30 1.26 1.27 1.31 1.39 1.50 1.60 1.77
1.61 1.58 1.55 1.50 1.41 1.37 1.33 1.30 1.28 1.27 1.31 1.32 1.27 1.27 1.30 1.32 1.42 1.55 1.70 1.94 2.14 2.03 1.72 1.48 1.47 1.43 1.38 1.46 1.66 1.41 1.30 1.32 1.20 1.12 1.12 1.11 1.12 1.14 1.13 1.10 1.12 1.18 1.27
1.25 1.27 1.22 1.19 1.22 1.23 1.15 1.09 1.06 1.09 1.12 1.17 1.20 1.14 1.13 1.14 1.19 1.26 1.38 1.54 1.79 1.94 1.79 1.46 1.39 1.31 1.26 1.24 1.48 1.29 1.29 1.31 1.10 0.96 0.91 0.91 0.94 0.99 0.99 0.94 0.96 1.00 1.05
1.07 1.05 1.03 1.01 1.00 1.00 0.98 1.02 1.00 1.02 1.07 1.09 1.09 1.08 1.07 1.09 1.13 1.11 1.18 1.30 1.46 1.66 1.77 1.59 1.43 1.33 1.28 1.31 1.34 1.22 1.15 1.07 0.99 0.98 0.85 0.80 0.81 0.88 0.89 0.86 0.88 0.91 0.93
0.95 0.95 0.97 0.92 0.84 0.82 0.89 0.96 0.98 0.96 1.04 1.04 1.04 1.08 1.06 1.08 1.09 1.07 1.12 1.18 1.34 1.55 1.70 1.74 1.57 1.43 1.36 1.31 1.29 1.20 0.99 0.91 0.93 1.04 0.90 0.80 0.75 0.75 0.83 0.80 0.79 0.83 0.89
0.92 0.91 0.87 0.85 0.83 0.79 0.81 0.82 0.83 0.84 0.90 0.97 1.00 1.06 1.08 1.10 1.08 1.07 1.11 1.16 1.29 1.42 1.59 1.66 1.59 1.49 1.42 1.34 1.38 1.26 1.12 1.18 1.01 1.01 0.93 0.86 0.80 0.79 1.00 1.01 0.79 0.75 0.80
0.84 0.82 0.77 0.76 0.81 0.80 0.72 0.67 0.69 0.73 0.81 0.84 0.85 0.96 1.02 1.04 1.03 1.09 1.12 1.16 1.25 1.41 1.52 1.57 1.50 1.41 1.38 1.37 1.43 1.43 1.36 1.31 1.20 0.96 0.97 0.91 0.88 0.90 1.22 1.71 1.19 0.87 0.82
0.79 0.79 0.74 0.69 0.74 0.72 0.65 0.66 0.66 0.67 0.73 0.73 0.75 0.82 0.87 0.88 0.87 0.93 0.95 1.05 1.18 1.34 1.43 1.50 1.47 1.41 1.35 1.44 1.46 1.40 1.36 1.35 1.23 1.09 1.08 0.99 1.12 1.40 1.90 2.51 2.02 1.37 1.12
0.86 0.82 0.76 0.71 0.71 0.66 0.65 0.61 0.59 0.62 0.69 0.75 0.81 0.82 0.76 0.76 0.72 0.69 0.75 0.85 1.02 1.23 1.41 1.49 1.44 1.42 1.36 1.40 1.50 1.48 1.46 1.47 1.43 1.18 1.13 1.11 1.34 2.06 2.70 3.00 2.54 1.71 1.37
0.97 0.87 0.77 0.74 0.71 0.64 0.57 0.48 0.47 0.53 0.68 0.80 0.86 0.84 0.72 0.68 0.77 0.76 0.76 0.79 0.92 1.05 1.27 1.49 1.54 1.42 1.39 1.44 1.57 1.63 1.56 1.54 1.50 1.29 1.31 1.35 1.57 2.37 2.63 2.75 2.55 1.80 1.48
0.91 0.85 0.78 0.73 0.68 0.52 0.46 0.44 0.46 0.50 0.59 0.65 0.68 0.75 0.83 0.85 0.78 0.79 0.78 0.88 0.97 1.07 1.15 1.28 1.46 1.39 1.34 1.42 1.53 1.56 1.51 1.45 1.38 1.28 1.31 1.48 1.68 2.21 2.22 2.33 2.37 1.86 1.55
0.87 0.79 0.72 0.69 0.65 0.52 0.48 0.46 0.48 0.53 0.58 0.55 0.51 0.56 0.63 0.67 0.68 0.75 0.84 1.00 1.04 1.15 1.17 1.33 1.36 1.30 1.30 1.33 1.28 1.31 1.53 1.64 1.54 1.29 1.20 1.37 1.58 1.88 1.93 2.02 1.97 1.80 1.62
0.81 0.67 0.60 0.60 0.57 0.56 0.50 0.44 0.43 0.47 0.55 0.52 0.55 0.61 0.61 0.54 0.58 0.71 0.88 1.08 1.22 1.26 1.34 1.52 1.50 1.48 1.39 1.35 1.24 1.25 1.53 1.72 1.67 1.43 1.18 1.25 1.40 1.57 1.79 1.78 1.65 1.55 1.61

GEFSMA_prec_meanprecacc_240.txt.gz
Total_Precipitation_Accumulation
2.32 2.28 2.24 2.27 2.17 2.28 2.33 2.29 2.05 1.87 1.76 1.59 1.42 1.46 1.58 1.58 1.63 1.69 1.92 2.00 1.89 2.08 2.51 2.88 2.91 2.92 2.88 2.79 2.71 2.65 2.54 2.50 2.37 2.16 1.85 1.67 1.62 1.50 1.45 1.45 1.50 1.49 1.44
2.68 2.65 2.73 2.72 2.48 2.46 2.55 2.63 2.51 2.30 2.02 1.83 1.64 1.62 1.65 1.62 1.69 1.83 1.99 2.11 2.06 2.02 2.39 2.86 3.11 3.28 3.28 3.27 3.10 2.83 2.63 2.52 2.48 2.37 2.19 1.94 1.79 1.68 1.63 1.57 1.53 1.47 1.42
3.00 2.97 3.12 3.10 2.77 2.68 2.81 2.90 2.87 2.75 2.35 2.07 1.95 1.92 1.89 1.92 1.85 1.93 2.14 2.26 2.22 2.18 2.36 2.52 2.75 2.97 3.14 3.28 3.32 3.14 2.91 2.65 2.50 2.43 2.41 2.31 2.11 1.92 1.79 1.70 1.65 1.57 1.46
3.06 3.15 3.07 2.90 2.84 2.90 3.15 3.35 3.28 3.19 2.93 2.65 2.42 2.15 1.97 1.97 1.93 2.08 2.17 2.26 2.54 2.47 2.40 2.24 2.33 2.56 2.82 3.14 3.40 3.42 3.29 3.07 2.75 2.55 2.48 2.40 2.23 2.02 1.86 1.74 1.70 1.64 1.56
3.18 3.33 3.36 3.29 3.22 3.25 3.32 3.23 3.39 3.25 3.30 3.08 2.62 2.37 2.15 2.06 2.10 2.16 2.24 2.26 2.40 2.54 2.50 2.28 2.21 2.35 2.51 2.83 3.10 3.38 3.49 3.37 3.10 2.83 2.66 2.54 2.37 2.19 2.03 1.92 1.81 1.71 1.62
3.48 3.60 3.56 3.61 3.68 3.74 3.57 3.48 3.50 3.30 3.15 3.07 2.69 2.48 2.32 2.16 2.13 2.11 2.06 2.11 2.22 2.18 2.26 2.26 2.28 2.15 2.26 2.43 2.68 3.10 3.51 3.62 3.50 3.25 3.05 2.91 2.64 2.35 2.12 2.02 1.95 1.88 1.79
4.08 4.10 4.12 4.10 3.97 3.88 3.73 3.55 3.45 3.34 3.10 2.91 2.85 2.53 2.15 1.88 1.79 1.75 1.79 1.88 1.88 1.89 2.01 2.19 2.30 2.24 2.10 2.09 2.26 2.71 3.30 3.62 3.65 3.50 3.32 3.20 2.90 2.53 2.27 2.09 1.99 1.94 1.87
4.79 4.58 4.54 4.33 4.04 3.86 3.72 3.52 3.38 3.22 2.95 2.81 2.77 2.74 2.31 1.94 1.62 1.43 1.51 1.52 1.58 1.75 1.85 1.83 1.90 1.93 1.87 1.89 1.84 2.10 2.41 2.72 3.04 3.29 3.39 3.26 3.04 2.78 2.53 2.37 2.27 2.21 2.12
4.83 4.58 4.33 4.19 4.02 3.84 3.66 3.55 3.43 3.29 3.03 2.83 2.71 2.87 2.70 2.33 1.89 1.66 1.50 1.50 1.58 1.66 1.66 1.64 1.62 1.62 1.67 1.76 1.79 1.87 2.03 2.19 2.48 2.78 3.04 3.07 2.96 2.81 2.68 2.61 2.57 2.58 2.55
4.48 4.07 3.86 3.89 3.76 3.56 3.35 3.10 2.98 2.93 2.85 2.72 2.65 2.54 2.53 2.45 2.25 1.98 1.76 1.75 1.79 1.75 1.68 1.65 1.72 1.78 1.78 1.85 1.83 1.70 1.70 1.75 1.99 2.24 2.53 2.65 2.61 2.59 2.61 2.74 2.86 2.96 2.96
3.90 3.63 3.45 3.52 3.42 3.18 2.97 2.70 2.48 2.37 2.34 2.40 2.44 2.41 2.35 2.29 2.11 1.99 1.86 1.77 1.76 1.73 1.68 1.65 1.70 1.79 1.80 1.75 1.69 1.64 1.65 1.63 1.76 1.92 2.09 2.34 2.46 2.51 2.58 2.72 2.87 2.97 3.03
3.30 2.98 2.70 2.63 2.55 2.40 2.29 2.24 2.16 2.10 2.07 2.13 2.16 2.10 2.09 2.10 2.05 2.04 1.95 1.78 1.76 1.83 1.72 1.60 1.53 1.51 1.54 1.60 1.60 1.72 1.64 1.62 1.67 1.74 1.72 1.76 1.94 2.15 2.32 2.46 2.54 2.72 2.91
2.64 2.33 2.11 2.00 1.95 1.94 1.90 1.91 1.90 1.88 1.82 1.84 1.84 1.83 1.82 1.78 1.80 1.94 2.08 2.02 1.90 1.77 1.72 1.63 1.47 1.43 1.42 1.46 1.62 1.73 1.59 1.51 1.56 1.58 1.48 1.42 1.49 1.63 1.74 1.89 2.08 2.28 2.50
2.08 1.96 1.82 1.69 1.63 1.68 1.70 1.76 1.70 1.61 1.54 1.54 1.50 1.53 1.58 1.54 1.65 1.84 1.98 2.16 2.15 1.90 1.67 1.58 1.48 1.41 1.43 1.46 1.63 1.65 1.46 1.38 1.34 1.39 1.39 1.33 1.29 1.31 1.36 1.43 1.54 1.64 1.82
1.63 1.59 1.56 1.51 1.43 1.39 1.37 1.34 1.31 1.31 1.35 1.37 1.34 1.34 1.35 1.36 1.46 1.61 1.75 2.00 2.21 2.10 1.79 1.55 1.52 1.47 1.42 1.51 1.71 1.45 1.34 1.36 1.23 1.14 1.14 1.13 1.15 1.18 1.17 1.14 1.15 1.21 1.29
1.26 1.29 1.24 1.21 1.24 1.26 1.18 1.11 1.09 1.12 1.15 1.21 1.26 1.22 1.20 1.20 1.25 1.32 1.43 1.61 1.87 2.02 1.87 1.52 1.45 1.36 1.31 1.29 1.53 1.34 1.33 1.35 1.14 1.00 0.93 0.93 0.96 1.02 1.02 0.97 0.99 1.02 1.07
1.09 1.07 1.05 1.03 1.02 1.02 1.00 1.04 1.03 1.04 1.10 1.13 1.13 1.14 1.13 1.16 1.21 1.18 1.25 1.38 1.55 1.75 1.86 1.66 1.49 1.39 1.33 1.37 1.40 1.29 1.22 1.13 1.04 1.01 0.88 0.82 0.83 0.90 0.91 0.88 0.91 0.93 0.95
0.97 0.98 0.99 0.94 0.85 0.84 0.91 0.98 1.00 0.98 1.06 1.07 1.07 1.13 1.12 1.14 1.17 1.16 1.22 1.30 1.44 1.63 1.77 1.81 1.63 1.49 1.41 1.37 1.38 1.31 1.08 0.99 0.99 1.08 0.92 0.82 0.76 0.76 0.84 0.81 0.81 0.85 0.91
0.95 0.93 0.89 0.87 0.85 0.81 0.83 0.83 0.84 0.85 0.92 0.99 1.02 1.08 1.12 1.15 1.13 1.14 1.18 1.24 1.36 1.48 1.66 1.74 1.67 1.56 1.48 1.41 1.47 1.35 1.21 1.27 1.08 1.04 0.95 0.87 0.81 0.80 1.01 1.02 0.80 0.77 0.82
0.86 0.85 0.78 0.77 0.82 0.80 0.73 0.68 0.69 0.74 0.82 0.86 0.87 0.99 1.05 1.07 1.06 1.13 1.18 1.23 1.30 1.46 1.58 1.65 1.58 1.49 1.45 1.44 1.50 1.52 1.45 1.39 1.26 1.00 1.00 0.95 0.91 0.93 1.25 1.74 1.22 0.90 0.85
0.80 0.80 0.74 0.69 0.74 0.72 0.66 0.66 0.67 0.67 0.73 0.74 0.77 0.85 0.91 0.92 0.91 0.97 0.99 1.10 1.24 1.39 1.48 1.56 1.54 1.49 1.42 1.50 1.53 1.48 1.45 1.42 1.29 1.14 1.13 1.03 1.15 1.42 1.93 2.54 2.05 1.41 1.16
0.87 0.83 0.77 0.72 0.71 0.66 0.66 0.61 0.59 0.62 0.69 0.76 0.82 0.84 0.80 0.80 0.77 0.73 0.78 0.88 1.05 1.26 1.45 1.54 1.51 1.49 1.44 1.47 1.57 1.55 1.52 1.53 1.49 1.23 1.18 1.15 1.36 2.08 2.72 3.02 2.56 1.74 1.40
0.98 0.88 0.78 0.75 0.71 0.64 0.57 0.48 0.48 0.54 0.70 0.82 0.89 0.85 0.74 0.70 0.81 0.81 0.80 0.82 0.94 1.07 1.30 1.53 1.58 1.47 1.44 1.49 1.64 1.70 1.62 1.59 1.55 1.34 1.35 1.38 1.60 2.39 2.64 2.76 2.57 1.81 1.50
0.92 0.87 0.79 0.74 0.68 0.52 0.46 0.45 0.48 0.52 0.64 0.69 0.71 0.77 0.85 0.87 0.81 0.83 0.82 0.92 1.01 1.11 1.18 1.31 1.51 1.44 1.38 1.47 1.59 1.63 1.57 1.51 1.42 1.32 1.35 1.51 1.72 2.24 2.24 2.35 2.38 1.86 1.56
0.88 0.80 0.74 0.71 0.66 0.54 0.50 0.49 0.52 0.56 0.61 0.57 0.53 0.58 0.64 0.69 0.70 0.77 0.87 1.04 1.09 1.20 1.21 1.37 1.40 1.34 1.34 1.37 1.32 1.37 1.59 1.71 1.59 1.33 1.24 1.41 1.63 1.92 1.96 2.05 1.99 1.81 1.63
0.83 0.69 0.62 0.63 0.60 0.58 0.53 0.47 0.46 0.49 0.57 0.54 0.56 0.63 0.61 0.55 0.60 0.72 0.91 1.12 1.27 1.31 1.39 1.56 1.54 1.51 1.42 1.38 1.27 1.28 1.57 1.77 1.72 1.47 1.21 1.28 1.44 1.61 1.84 1.82 1.68 1.57 1.62

GEFSMA_prec_meanprecacc_246.txt.gz
Total_Precipitation_Accumulation
2.37 2.33 2.28 2.31 2.21 2.32 2.39 2.35 2.11 1.94 1.84 1.68 1.51 1.54 1.66 1.65 1.70 1.76 1.97 2.04 1.93 2.13 2.57 2.94 2.97 2.99 2.94 2.84 2.76 2.71 2.61 2.56 2.43 2.22 1.90 1.70 1.65 1.53 1.49 1.48 1.54 1.55 1.51
2.75 2.71 2.78 2.78 2.53 2.51 2.60 2.68 2.56 2.36 2.07 1.88 1.70 1.67 1.69 1.66 1.73 1.88 2.04 2.15 2.09 2.05 2.44 2.91 3.17 3.34 3.36 3.34 3.17 2.89 2.70 2.60 2.55 2.43 2.24 1.98 1.83 1.71 1.67 1.59 1.56 1.51 1.46
3.09 3.06 3.19 3.17 2.83 2.72 2.85 2.94 2.92 2.80 2.39 2.10 1.99 1.97 1.92 1.95 1.88 1.96 2.17 2.28 2.23 2.19 2.38 2.55 2.78 3.02 3.20 3.35 3.40 3.22 2.99 2.73 2.57 2.49 2.46 2.35 2.15 1.95 1.83 1.75 1.69 1.61 1.50
3.13 3.24 3.15 2.98 2.91 2.94 3.19 3.39 3.33 3.23 2.97 2.68 2.46 2.18 2.00 1.99 1.96 2.11 2.20 2.28 2.55 2.48 2.42 2.26 2.36 2.59 2.87 3.19 3.45 3.49 3.38 3.15 2.83 2.61 2.53 2.44 2.26 2.05 1.90 1.80 1.78 1.71 1.62
3.23 3.41 3.44 3.37 3.27 3.29 3.36 3.27 3.43 3.27 3.33 3.12 2.65 2.40 2.18 2.09 2.13 2.19 2.28 2.29 2.43 2.56 2.52 2.30 2.24 2.38 2.54 2.87 3.15 3.44 3.55 3.44 3.16 2.88 2.70 2.57 2.40 2.21 2.06 1.97 1.87 1.78 1.71
3.53 3.67 3.62 3.67 3.73 3.79 3.62 3.53 3.55 3.34 3.19 3.10 2.71 2.51 2.35 2.20 2.16 2.14 2.09 2.13 2.24 2.21 2.28 2.28 2.32 2.19 2.29 2.47 2.73 3.16 3.57 3.68 3.55 3.28 3.08 2.94 2.67 2.38 2.15 2.05 2.00 1.94 1.86
4.14 4.15 4.17 4.16 4.02 3.92 3.78 3.60 3.51 3.39 3.14 2.94 2.89 2.57 2.19 1.92 1.83 1.79 1.83 1.90 1.90 1.91 2.03 2.23 2.35 2.29 2.13 2.12 2.30 2.77 3.39 3.70 3.71 3.54 3.35 3.23 2.93 2.55 2.30 2.12 2.03 1.99 1.92
4.85 4.62 4.60 4.38 4.08 3.90 3.76 3.57 3.43 3.27 2.98 2.85 2.81 2.79 2.36 1.99 1.65 1.46 1.55 1.55 1.61 1.78 1.88 1.85 1.94 1.98 1.91 1.94 1.88 2.16 2.48 2.80 3.12 3.36 3.44 3.30 3.07 2.80 2.55 2.39 2.29 2.24 2.16
4.88 4.64 4.39 4.24 4.06 3.89 3.72 3.60 3.47 3.33 3.06 2.86 2.75 2.92 2.76 2.39 1.93 1.69 1.54 1.54 1.62 1.70 1.70 1.66 1.66 1.67 1.72 1.81 1.83 1.91 2.08 2.25 2.54 2.85 3.10 3.13 3.00 2.83 2.70 2.64 2.59 2.60 2.58
4.50 4.11 3.91 3.94 3.81 3.61 3.39 3.14 3.01 2.97 2.90 2.76 2.69 2.59 2.58 2.51 2.32 2.04 1.80 1.79 1.83 1.79 1.72 1.68 1.75 1.83 1.84 1.91 1.89 1.74 1.74 1.80 2.03 2.28 2.58 2.70 2.66 2.63 2.64 2.76 2.88 2.99 3.00
3.93 3.65 3.48 3.56 3.45 3.22 3.01 2.75 2.53 2.43 2.40 2.45 2.48 2.45 2.39 2.35 2.18 2.06 1.91 1.83 1.81 1.77 1.71 1.68 1.74 1.82 1.84 1.80 1.74 1.67 1.69 1.67 1.79 1.95 2.13 2.38 2.51 2.57 2.64 2.76 2.91 3.01 3.08
3.33 3.01 2.73 2.67 2.60 2.45 2.34 2.29 2.21 2.16 2.13 2.19 2.22 2.16 2.15 2.15 2.11 2.10 2.01 1.84 1.82 1.88 1.76 1.65 1.57 1.54 1.59 1.65 1.65 1.77 1.69 1.65 1.70 1.76 1.75 1.79 1.98 2.20 2.39 2.51 2.59 2.77 2.97
2.69 2.37 2.14 2.04 2.01 2.00 1.97 1.98 1.96 1.94 1.89 1.91 1.91 1.90 1.89 1.85 1.87 2.02 2.15 2.08 1.96 1.83 1.79 1.70 1.52 1.48 1.47 1.52 1.68 1.77 1.63 1.54 1.59 1.60 1.50 1.45 1.52 1.68 1.78 1.94 2.13 2.34 2.58
2.13 1.99 1.84 1.73 1.69 1.74 1.75 1.82 1.76 1.67 1.61 1.61 1.56 1.61 1.65 1.60 1.71 1.91 2.05 2.23 2.22 1.97 1.75 1.65 1.55 1.47 1.48 1.50 1.67 1.69 1.49 1.41 1.36 1.40 1.40 1.34 1.31 1.33 1.39 1.46 1.57 1.69 1.89
1.68 1.62 1.59 1.55 1.48 1.43 1.40 1.39 1.36 1.36 1.41 1.43 1.38 1.38 1.39 1.40 1.51 1.66 1.80 2.06 2.27 2.17 1.89 1.63 1.61 1.56 1.50 1.56 1.76 1.49 1.37 1.39 1.25 1.15 1.15 1.14 1.17 1.20 1.21 1.18 1.19 1.25 1.34
1.32 1.32 1.27 1.24 1.27 1.28 1.21 1.15 1.12 1.15 1.18 1.25 1.29 1.25 1.24 1.23 1.29 1.36 1.47 1.66 1.93 2.09 1.93 1.59 1.53 1.47 1.40 1.36 1.59 1.39 1.38 1.41 1.18 1.02 0.95 0.94 0.98 1.04 1.05 1.02 1.02 1.06 1.11
1.14 1.10 1.08 1.05 1.04 1.03 1.01 1.06 1.05 1.06 1.13 1.16 1.16 1.17 1.17 1.20 1.26 1.23 1.29 1.42 1.60 1.81 1.93 1.73 1.57 1.48 1.43 1.46 1.49 1.38 1.29 1.20 1.10 1.04 0.90 0.84 0.85 0.92 0.94 0.92 0.94 0.96 0.98
1.03 1.03 1.03 0.97 0.87 0.85 0.92 1.00 1.01 1.00 1.09 1.09 1.09 1.15 1.15 1.18 1.22 1.22 1.28 1.36 1.50 1.71 1.85 1.89 1.71 1.57 1.49 1.46 1.48 1.41 1.17 1.05 1.04 1.12 0.96 0.85 0.79 0.78 0.86 0.84 0.83 0.88 0.94
1.00 0.98 0.92 0.90 0.87 0.82 0.84 0.84 0.86 0.87 0.93 1.01 1.04 1.10 1.14 1.18 1.17 1.20 1.26 1.32 1.45 1.58 1.77 1.86 1.76 1.63 1.55 1.48 1.56 1.45 1.31 1.36 1.13 1.07 0.98 0.90 0.83 0.82 1.02 1.04 0.82 0.79 0.84
0.91 0.88 0.80 0.78 0.83 0.81 0.74 0.69 0.71 0.76 0.84 0.87 0.89 1.00 1.06 1.09 1.09 1.17 1.23 1.31 1.40 1.56 1.69 1.76 1.68 1.57 1.52 1.51 1.58 1.61 1.53 1.46 1.33 1.05 1.03 0.97 0.93 0.94 1.26 1.75 1.24 0.92 0.87
0.82 0.81 0.75 0.70 0.74 0.73 0.66 0.67 0.68 0.69 0.75 0.76 0.78 0.86 0.92 0.93 0.92 0.99 1.01 1.14 1.31 1.48 1.57 1.65 1.62 1.58 1.52 1.61 1.64 1.56 1.51 1.48 1.36 1.21 1.19 1.07 1.18 1.45 1.96 2.56 2.06 1.42 1.18
0.89 0.84 0.79 0.74 0.73 0.66 0.66 0.62 0.60 0.63 0.71 0.78 0.85 0.86 0.81 0.81 0.77 0.74 0.80 0.90 1.09 1.32 1.52 1.61 1.58 1.58 1.55 1.60 1.70 1.66 1.61 1.62 1.57 1.31 1.26 1.22 1.41 2.13 2.76 3.05 2.58 1.75 1.41
1.01 0.91 0.80 0.77 0.74 0.66 0.57 0.48 0.48 0.56 0.73 0.85 0.91 0.88 0.75 0.71 0.82 0.83 0.84 0.85 0.96 1.10 1.34 1.58 1.64 1.54 1.54 1.60 1.76 1.82 1.72 1.68 1.63 1.40 1.43 1.45 1.65 2.44 2.68 2.79 2.59 1.83 1.51
0.96 0.89 0.82 0.76 0.71 0.54 0.48 0.45 0.48 0.54 0.67 0.72 0.74 0.80 0.87 0.89 0.83 0.85 0.85 0.96 1.05 1.14 1.22 1.35 1.56 1.50 1.45 1.55 1.68 1.71 1.65 1.57 1.48 1.36 1.40 1.57 1.78 2.30 2.29 2.39 2.42 1.89 1.58
0.92 0.84 0.76 0.73 0.69 0.58 0.52 0.50 0.53 0.59 0.65 0.60 0.56 0.60 0.66 0.72 0.72 0.79 0.90 1.08 1.14 1.25 1.24 1.40 1.43 1.37 1.37 1.41 1.37 1.43 1.66 1.77 1.66 1.38 1.28 1.46 1.68 1.98 2.03 2.10 2.02 1.83 1.65
0.88 0.73 0.65 0.66 0.64 0.62 0.55 0.48 0.47 0.51 0.59 0.57 0.59 0.65 0.63 0.57 0.61 0.73 0.93 1.16 1.31 1.36 1.44 1.59 1.56 1.53 1.44 1.40 1.30 1.33 1.63 1.82 1.76 1.52 1.27 1.32 1.48 1.67 1.91 1.88 1.73 1.61 1.65

GEFSMA_prec_meanprecacc_252.txt.gz
Total_Precipitation_Accumulation
2.41 2.38 2.34 2.37 2.27 2.36 2.42 2.38 2.13 1.97 1.89 1.74 1.58 1.60 1.70 1.70 1.77 1.84 2.03 2.09 1.99 2.19 2.65 3.03 3.05 3.07 3.02 2.93 2.86 2.82 2.72 2.65 2.50 2.27 1.95 1.75 1.69 1.57 1.54 1.54 1.59 1.60 1.56
2.80 2.76 2.84 2.83 2.57 2.54 2.62 2.70 2.57 2.37 2.09 1.91 1.73 1.70 1.72 1.70 1.77 1.92 2.08 2.19 2.13 2.09 2.48 2.98 3.25 3.43 3.44 3.42 3.27 3.00 2.81 2.70 2.63 2.50 2.30 2.04 1.87 1.76 1.71 1.63 1.61 1.56 1.50
3.15 3.11 3.23 3.22 2.87 2.76 2.87 2.95 2.93 2.82 2.40 2.12 2.01 1.99 1.94 1.97 1.90 1.98 2.19 2.30 2.25 2.22 2.42 2.59 2.84 3.09 3.29 3.43 3.47 3.30 3.07 2.82 2.66 2.58 2.55 2.42 2.21 2.01 1.88 1.78 1.73 1.65 1.54
3.19 3.27 3.18 3.02 2.95 2.99 3.22 3.41 3.35 3.25 2.98 2.70 2.47 2.19 2.01 2.00 1.97 2.13 2.21 2.29 2.57 2.50 2.44 2.28 2.39 2.64 2.93 3.25 3.51 3.56 3.44 3.23 2.91 2.70 2.63 2.53 2.33 2.11 1.94 1.84 1.82 1.74 1.66
3.28 3.45 3.46 3.39 3.30 3.34 3.40 3.29 3.46 3.29 3.35 3.13 2.66 2.41 2.19 2.10 2.14 2.19 2.28 2.30 2.45 2.58 2.54 2.32 2.27 2.42 2.58 2.92 3.20 3.49 3.61 3.52 3.24 2.97 2.79 2.67 2.49 2.28 2.11 2.01 1.91 1.81 1.73
3.58 3.71 3.66 3.71 3.76 3.82 3.65 3.56 3.58 3.35 3.20 3.11 2.72 2.52 2.37 2.20 2.17 2.14 2.10 2.15 2.26 2.23 2.30 2.29 2.34 2.21 2.32 2.50 2.77 3.21 3.64 3.76 3.64 3.37 3.17 3.02 2.76 2.45 2.20 2.10 2.04 1.97 1.89
4.20 4.20 4.22 4.20 4.05 3.95 3.80 3.63 3.53 3.41 3.16 2.96 2.90 2.58 2.20 1.93 1.83 1.79 1.84 1.92 1.91 1.92 2.04 2.23 2.35 2.30 2.14 2.14 2.33 2.83 3.47 3.78 3.80 3.62 3.42 3.30 2.99 2.61 2.35 2.16 2.07 2.03 1.97
4.90 4.67 4.65 4.42 4.11 3.93 3.79 3.59 3.45 3.28 2.99 2.86 2.82 2.81 2.37 2.00 1.66 1.46 1.55 1.56 1.63 1.79 1.89 1.86 1.95 1.99 1.92 1.95 1.90 2.21 2.56 2.88 3.21 3.44 3.50 3.36 3.12 2.85 2.60 2.43 2.33 2.28 2.21
4.92 4.68 4.44 4.28 4.10 3.92 3.74 3.63 3.49 3.35 3.08 2.88 2.78 2.95 2.78 2.40 1.94 1.70 1.55 1.55 1.63 1.72 1.72 1.68 1.68 1.69 1.72 1.83 1.85 1.94 2.12 2.31 2.61 2.92 3.17 3.19 3.05 2.88 2.74 2.67 2.63 2.63 2.62
4.54 4.14 3.95 3.98 3.84 3.64 3.42 3.16 3.03 2.99 2.92 2.78 2.71 2.62 2.61 2.53 2.34 2.04 1.80 1.80 1.84 1.82 1.74 1.69 1.77 1.85 1.85 1.93 1.91 1.76 1.76 1.83 2.08 2.33 2.64 2.77 2.72 2.68 2.68 2.80 2.92 3.03 3.03
4.01 3.71 3.53 3.59 3.48 3.24 3.03 2.77 2.55 2.45 2.42 2.47 2.50 2.47 2.42 2.37 2.21 2.09 1.92 1.83 1.82 1.78 1.72 1.70 1.75 1.84 1.86 1.81 1.77 1.70 1.71 1.70 1.83 1.98 2.16 2.43 2.58 2.63 2.70 2.82 2.96 3.06 3.12
3.40 3.07 2.79 2.70 2.63 2.47 2.36 2.31 2.23 2.18 2.15 2.21 2.24 2.18 2.17 2.18 2.14 2.14 2.04 1.85 1.83 1.89 1.79 1.68 1.59 1.56 1.61 1.67 1.68 1.80 1.72 1.70 1.73 1.80 1.78 1.82 2.03 2.27 2.47 2.60 2.66 2.83 3.02
2.73 2.41 2.19 2.08 2.04 2.02 1.98 1.99 1.98 1.96 1.91 1.93 1.93 1.92 1.92 1.88 1.91 2.07 2.19 2.11 1.97 1.84 1.81 1.73 1.56 1.51 1.49 1.54 1.72 1.81 1.67 1.59 1.63 1.64 1.53 1.48 1.55 1.73 1.85 2.01 2.20 2.40 2.64
2.17 2.03 1.89 1.76 1.72 1.77 1.77 1.84 1.78 1.69 1.63 1.63 1.59 1.63 1.68 1.63 1.75 1.95 2.09 2.27 2.25 1.99 1.78 1.68 1.59 1.51 1.50 1.52 1.70 1.72 1.53 1.45 1.39 1.44 1.45 1.38 1.33 1.37 1.43 1.50 1.63 1.75 1.95
1.72 1.66 1.62 1.59 1.52 1.47 1.44 1.42 1.40 1.39 1.44 1.45 1.41 1.40 1.41 1.42 1.53 1.68 1.83 2.09 2.30 2.21 1.93 1.67 1.66 1.61 1.55 1.59 1.79 1.54 1.41 1.44 1.30 1.19 1.19 1.18 1.19 1.22 1.24 1.21 1.22 1.29 1.39
1.35 1.35 1.29 1.27 1.30 1.32 1.24 1.18 1.15 1.17 1.21 1.27 1.32 1.27 1.25 1.25 1.31 1.37 1.49 1.67 1.95 2.12 1.95 1.60 1.56 1.51 1.47 1.41 1.63 1.44 1.44 1.46 1.23 1.06 0.99 0.98 1.01 1.07 1.07 1.04 1.05 1.09 1.15
1.17 1.13 1.11 1.08 1.07 1.04 1.03 1.07 1.06 1.08 1.15 1.18 1.18 1.19 1.20 1.22 1.27 1.24 1.30 1.43 1.62 1.83 1.94 1.74 1.59 1.52 1.48 1.52 1.53 1.42 1.34 1.24 1.14 1.08 0.94 0.88 0.89 0.97 0.97 0.95 0.98 0.99 1.02
1.07 1.06 1.06 1.00 0.89 0.86 0.93 1.01 1.02 1.01 1.10 1.11 1.11 1.18 1.18 1.19 1.23 1.24 1.29 1.37 1.51 1.72 1.87 1.91 1.73 1.58 1.52 1.51 1.53 1.47 1.22 1.10 1.08 1.16 0.99 0.88 0.81 0.80 0.89 0.87 0.88 0.93 1.00
1.03 1.01 0.95 0.91 0.87 0.82 0.85 0.85 0.86 0.87 0.94 1.02 1.05 1.12 1.15 1.19 1.19 1.21 1.27 1.33 1.46 1.59 1.79 1.88 1.78 1.65 1.57 1.50 1.60 1.50 1.36 1.40 1.16 1.10 1.01 0.93 0.86 0.84 1.05 1.07 0.86 0.85 0.90
0.93 0.90 0.81 0.79 0.83 0.82 0.74 0.70 0.71 0.76 0.84 0.88 0.90 1.01 1.08 1.11 1.10 1.18 1.24 1.32 1.41 1.58 1.72 1.80 1.71 1.60 1.55 1.55 1.64 1.66 1.58 1.50 1.36 1.08 1.06 0.99 0.96 0.98 1.29 1.79 1.28 0.97 0.93
0.82 0.82 0.76 0.71 0.75 0.73 0.67 0.68 0.68 0.69 0.75 0.76 0.79 0.87 0.94 0.95 0.94 1.01 1.03 1.16 1.33 1.51 1.62 1.71 1.67 1.62 1.56 1.67 1.70 1.62 1.56 1.54 1.41 1.25 1.22 1.10 1.21 1.49 2.00 2.60 2.11 1.48 1.25
0.90 0.85 0.79 0.74 0.73 0.67 0.66 0.62 0.61 0.64 0.72 0.79 0.86 0.87 0.82 0.82 0.79 0.76 0.82 0.92 1.11 1.35 1.56 1.67 1.64 1.64 1.60 1.65 1.76 1.72 1.67 1.68 1.63 1.36 1.29 1.25 1.44 2.18 2.80 3.09 2.63 1.81 1.49
1.02 0.91 0.81 0.78 0.74 0.66 0.58 0.49 0.49 0.57 0.74 0.86 0.92 0.89 0.76 0.72 0.83 0.85 0.86 0.87 0.98 1.11 1.36 1.61 1.68 1.60 1.60 1.66 1.82 1.87 1.78 1.75 1.70 1.46 1.47 1.48 1.67 2.46 2.71 2.83 2.64 1.87 1.57
0.96 0.90 0.82 0.78 0.72 0.55 0.48 0.45 0.49 0.55 0.68 0.72 0.74 0.81 0.88 0.90 0.84 0.87 0.88 0.99 1.06 1.16 1.24 1.37 1.58 1.52 1.48 1.59 1.72 1.76 1.71 1.65 1.58 1.44 1.46 1.62 1.81 2.32 2.31 2.41 2.44 1.92 1.62
0.93 0.84 0.77 0.74 0.70 0.58 0.53 0.51 0.54 0.60 0.65 0.61 0.57 0.62 0.69 0.74 0.74 0.81 0.93 1.10 1.15 1.26 1.26 1.42 1.45 1.39 1.40 1.44 1.41 1.46 1.70 1.84 1.74 1.46 1.34 1.50 1.71 2.00 2.05 2.12 2.03 1.85 1.67
0.89 0.74 0.66 0.67 0.65 0.62 0.56 0.49 0.48 0.51 0.59 0.57 0.60 0.67 0.64 0.58 0.63 0.76 0.96 1.19 1.32 1.37 1.45 1.60 1.58 1.55 1.46 1.43 1.34 1.38 1.67 1.88 1.82 1.58 1.31 1.35 1.50 1.69 1.94 1.90 1.75 1.63 1.67